GFSGBSN_prec_cthk_126.txt.gz
RH
81 80 72 72 64 62 58 57 55 56 58 57 58 58 58 59 63 64 66 68 69 72 68 59 52 44 41 33 31 27 25 22 18 20 17 16 15 13 14 14 15 15 17 16 16 16 17
93 96 98 96 91 94 91 84 81 78 78 75 75 80 79 80 80 78 82 77 81 80 76 69 61 50 42 38 30 26 23 23 20 20 20 18 16 16 14 15 15 15 16 16 16 17 17
92 96 95 91 94 98 98 95 91 92 90 90 95 92 93 88 88 86 83 80 87 86 80 72 66 52 41 39 32 29 21 18 20 18 18 18 16 16 17 19 20 19 18 18 16 17 17
68 76 82 86 84 74 87 92 85 84 88 97 95 99 97 93 91 89 88 86 86 80 77 68 64 54 40 36 31 23 20 19 17 17 16 16 17 17 18 18 18 17 17 20 20 21 21
51 56 61 61 64 70 55 50 63 79 82 87 90 96 97 94 90 86 93 87 88 80 78 72 62 52 37 30 24 24 23 24 21 14 16 18 19 19 20 21 22 20 23 23 22 22 21
39 39 41 41 38 45 40 36 33 42 48 75 84 88 86 89 85 85 98 85 80 69 80 78 72 60 41 35 29 31 30 21 20 17 15 18 21 22 22 23 26 25 25 25 26 24 25
34 34 34 34 34 33 34 28 23 24 27 31 37 54 58 54 65 65 81 84 79 64 65 57 52 46 44 38 38 41 37 25 22 20 19 22 25 27 25 26 26 26 27 28 29 27 28
30 32 31 31 33 33 30 29 26 25 24 24 24 27 37 43 39 48 59 49 61 51 54 49 44 42 32 29 31 24 28 28 27 26 23 23 28 25 28 30 32 32 33 33 32 30 30
42 39 32 29 29 31 31 25 29 32 29 28 28 28 30 28 32 39 38 36 53 50 52 37 27 25 21 23 26 21 31 32 32 32 32 30 28 31 33 36 37 37 36 34 34 30 30
47 46 43 36 34 32 31 28 27 27 30 31 31 30 35 37 43 43 40 48 55 48 45 28 23 22 26 30 35 32 35 37 37 34 35 35 33 34 38 39 38 36 36 34 33 32 32
47 47 45 43 37 35 35 34 30 32 31 28 27 31 34 41 45 46 41 51 55 51 41 22 26 28 31 34 30 31 35 40 39 37 35 35 33 33 33 32 32 33 30 30 30 32 30
41 44 42 40 38 36 35 35 35 31 34 34 35 36 46 49 43 45 50 53 62 62 57 30 30 31 36 37 31 31 32 33 34 38 37 34 34 34 31 32 32 31 30 31 31 34 38
41 34 37 40 38 36 32 31 32 33 32 33 34 40 42 47 61 65 61 69 80 66 30 32 29 29 34 35 34 31 32 32 33 36 36 35 31 29 30 29 29 29 33 47 46 48 43
43 42 35 35 35 34 31 30 29 31 32 31 32 38 45 50 58 60 64 69 71 44 36 37 36 38 37 36 35 33 30 33 35 35 34 36 36 28 27 28 31 34 37 52 59 59 51
49 48 43 39 33 34 34 31 30 32 34 30 28 34 44 43 55 76 72 98 73 47 39 33 38 42 40 37 32 35 36 39 37 33 35 37 32 27 26 28 35 42 43 48 58 54 62
51 57 51 46 39 33 33 33 34 34 35 35 30 32 33 40 56 62 79 71 71 44 48 53 56 48 44 38 42 44 48 41 37 35 34 34 38 32 32 35 42 47 51 61 71 68 67
63 64 63 52 46 40 33 33 33 33 34 39 37 40 32 37 49 72 85 77 62 53 53 59 58 57 49 53 50 51 52 48 44 39 36 35 37 36 36 40 51 55 56 58 60 61 67
80 79 74 69 56 47 41 38 36 34 35 44 44 43 35 35 64 64 73 56 54 59 66 65 55 62 63 57 59 58 60 57 44 38 40 41 44 46 44 47 52 54 53 56 66 63 66
79 85 86 81 73 63 53 44 42 40 38 45 54 45 45 46 66 55 59 50 60 56 69 71 69 63 68 62 62 61 53 54 43 41 43 43 48 59 48 49 56 60 63 66 70 73 68
73 82 84 84 80 77 68 59 53 45 41 51 59 65 55 56 44 45 45 54 57 58 63 69 77 71 63 56 57 57 63 60 50 42 41 42 49 53 53 56 63 67 64 58 63 79 58
77 77 83 82 80 78 74 68 59 52 56 67 66 64 45 51 54 41 49 38 48 49 42 66 68 67 71 68 66 72 67 69 53 42 41 45 55 57 62 69 68 61 53 40 40 41 68
90 89 86 82 79 76 72 67 61 57 73 83 77 65 61 40 41 46 45 44 41 40 45 50 56 73 80 70 76 80 71 61 61 47 48 56 60 68 73 67 57 53 40 38 47 41 57
97 93 89 84 79 77 72 71 68 61 72 80 66 81 62 46 48 53 46 28 33 41 46 37 63 77 80 70 67 59 55 52 48 53 62 59 72 82 78 59 62 65 44 56 61 49 50
88 91 86 81 75 73 71 73 69 69 63 69 60 63 74 67 56 40 32 35 40 44 43 40 52 78 75 70 65 62 59 51 52 55 55 68 82 82 74 62 72 39 50 66 70 69 75
71 74 76 74 71 70 73 74 78 78 66 61 65 68 81 72 52 49 44 35 40 40 46 42 58 77 70 65 72 77 73 58 55 60 62 74 81 75 74 73 47 49 61 74 75 76 80
52 54 59 52 55 62 67 71 76 76 71 62 66 70 81 76 63 48 47 41 42 41 52 55 53 55 76 76 70 85 76 70 68 65 70 75 68 69 81 74 73 68 79 72 76 82 78
74 62 58 50 46 51 65 75 79 77 72 62 53 68 85 83 69 67 52 44 39 35 40 54 62 72 65 72 89 78 78 67 77 82 89 80 77 71 70 73 60 61 66 70 80 75 80
98 96 88 76 63 72 78 77 82 82 75 70 50 72 82 83 77 78 71 53 47 39 34 41 59 61 65 92 84 78 76 78 85 86 88 88 94 93 88 80 64 60 71 76 76 84 82
98 98 98 92 79 79 81 80 77 87 79 75 67 89 84 90 84 76 75 80 62 51 44 40 36 41 48 79 79 77 88 87 84 92 83 90 85 90 82 73 64 61 70 82 81 81 85

GFSGBSN_prec_cthk_129.txt.gz
RH
77 70 67 65 59 54 50 50 51 52 53 51 51 51 51 53 52 54 54 54 58 57 58 60 59 55 49 44 37 33 29 23 21 19 17 16 15 14 14 14 15 14 15 16 16 16 17
95 88 93 86 84 78 73 70 66 61 61 62 64 59 59 66 65 67 70 70 73 69 69 69 67 63 58 48 41 34 30 23 19 19 18 16 15 15 14 15 16 15 14 15 16 17 18
97 97 98 95 98 97 96 96 93 95 90 86 86 88 86 85 86 81 82 78 77 75 74 76 72 64 61 50 37 34 31 24 19 16 16 15 14 15 15 16 16 17 17 17 16 16 18
87 90 89 93 92 93 98 97 94 98 97 93 91 92 95 95 92 90 89 84 81 80 75 72 69 67 54 49 35 31 29 22 22 19 15 15 14 15 15 17 18 18 18 18 17 19 20
74 74 78 81 83 85 89 88 91 90 88 87 86 90 97 95 97 94 90 82 83 81 81 74 70 69 53 44 34 23 23 23 23 16 15 16 15 16 17 20 21 21 21 21 21 21 22
50 60 61 66 68 66 66 65 73 68 65 65 52 72 93 98 98 93 86 85 86 87 79 76 68 71 60 52 43 33 25 27 30 26 17 18 18 17 18 21 25 23 23 23 24 23 25
39 37 38 49 55 57 56 52 46 47 43 45 41 41 66 86 91 91 94 89 91 87 79 76 64 64 57 51 41 36 33 33 29 25 26 25 22 23 22 22 24 25 26 27 27 27 28
38 39 41 37 35 37 42 42 37 35 36 31 36 37 34 33 44 53 65 66 75 71 65 60 49 46 46 49 46 34 33 29 28 25 25 24 28 25 26 28 30 32 32 33 31 30 30
39 38 37 40 38 35 36 36 33 31 34 33 34 34 34 35 35 41 45 49 51 66 54 40 31 33 32 36 35 27 31 31 28 28 29 30 26 27 29 32 34 36 38 37 34 31 30
49 45 42 40 35 32 31 32 30 32 32 34 32 33 36 40 42 45 42 47 45 41 44 38 25 23 24 27 27 18 24 30 32 34 37 36 33 33 35 37 38 40 37 34 33 33 35
55 52 51 48 46 40 35 37 30 28 27 28 31 33 30 40 43 38 38 49 49 48 51 23 25 26 28 27 27 31 33 37 38 37 36 36 33 33 34 35 35 33 31 31 30 31 31
63 59 59 57 54 50 43 39 39 34 33 32 33 33 38 43 46 38 47 57 60 57 56 28 30 33 38 35 28 30 38 38 37 40 37 35 35 34 34 35 34 35 34 34 35 34 36
57 60 58 54 52 55 53 46 41 40 37 37 36 38 42 46 46 47 52 57 65 63 32 32 29 31 36 35 31 29 30 31 33 38 37 35 34 37 35 33 34 35 36 46 46 46 41
60 59 55 54 50 45 49 50 47 43 42 37 39 41 42 59 62 54 59 73 74 51 41 38 33 32 37 36 37 34 37 38 33 33 34 36 36 32 31 33 34 33 34 44 47 55 43
61 60 58 51 51 49 44 43 45 46 44 41 41 43 51 47 50 76 81 93 78 54 46 44 41 39 40 41 40 42 39 35 32 34 39 41 38 33 31 29 30 34 38 42 53 52 58
77 67 60 58 54 50 47 47 43 42 41 41 39 45 47 51 71 80 83 73 62 48 45 47 47 45 46 43 43 43 42 35 35 38 41 41 43 37 33 31 30 35 41 53 64 72 69
84 80 74 64 63 54 45 41 43 44 44 45 43 44 39 46 60 76 90 86 59 53 57 59 55 56 52 48 49 51 49 43 42 43 44 42 42 38 36 36 38 42 46 52 61 63 73
71 76 83 81 76 66 56 49 41 44 47 49 50 45 39 38 67 69 65 57 58 61 61 64 66 65 57 58 53 46 48 48 48 47 48 45 49 46 42 44 42 43 46 52 70 59 65
58 64 74 91 88 86 71 58 47 44 46 47 58 49 46 47 71 62 54 53 51 51 55 65 62 58 61 62 61 57 56 57 57 55 51 48 51 60 52 48 46 50 51 53 65 73 63
58 61 70 79 90 92 89 74 57 52 52 51 60 59 55 63 50 44 43 46 52 50 49 55 58 59 64 61 59 61 61 62 61 58 53 55 59 55 51 50 55 57 58 67 72 80 69
66 66 71 78 80 98 94 92 78 65 60 59 62 59 45 60 53 43 50 41 41 47 47 51 51 53 69 77 73 65 60 61 60 55 56 62 62 61 48 53 57 52 54 64 70 59 65
76 68 77 80 84 97 98 95 90 83 76 70 67 57 55 40 46 52 56 44 39 38 44 48 53 59 80 71 69 71 71 69 65 71 70 70 72 66 59 59 60 57 58 57 53 42 42
82 81 79 80 88 93 98 98 99 94 90 78 69 61 55 48 51 59 40 36 35 43 39 44 49 69 50 47 73 74 74 80 79 81 70 68 70 68 65 61 59 66 55 50 53 46 50
85 87 86 90 94 97 98 98 97 98 94 83 71 71 69 60 52 42 35 34 40 42 44 46 40 39 39 54 68 70 74 74 74 69 61 60 62 68 72 65 74 52 48 47 51 56 64
88 94 96 94 96 96 97 96 94 93 92 81 86 84 81 70 53 50 45 38 41 43 48 45 40 41 58 61 93 83 81 76 71 68 63 60 67 77 79 78 66 50 46 47 67 67 69
85 93 97 98 98 97 95 92 90 86 87 81 74 85 90 82 64 47 50 49 45 46 45 42 38 43 49 68 75 75 80 72 75 71 69 64 67 78 93 93 82 52 59 68 71 74 72
70 80 91 97 98 97 93 90 88 83 85 85 75 75 87 86 75 70 61 52 48 47 43 40 43 50 49 77 89 88 77 75 76 72 77 73 84 83 84 81 62 40 50 68 75 66 71
50 61 72 82 91 94 93 89 86 84 86 87 77 77 77 78 79 72 69 58 52 46 44 39 54 59 62 63 68 67 82 74 79 71 70 80 91 91 86 94 81 54 54 66 67 73 75
84 54 51 66 75 79 80 79 76 77 84 92 90 75 76 79 88 82 86 74 62 53 44 42 35 43 56 65 81 80 74 87 81 81 82 94 85 89 85 77 74 66 62 61 72 78 78

GFSGBSN_prec_cthk_132.txt.gz
RH
81 74 67 62 59 54 49 48 46 46 49 50 51 52 52 52 50 49 48 49 47 50 53 51 53 56 55 51 42 39 33 30 25 23 18 17 16 16 16 15 14 13 14 14 16 17 17
94 91 87 84 78 67 64 59 54 49 47 49 50 51 50 51 49 56 60 60 58 61 65 61 66 67 64 56 47 41 39 31 26 20 17 16 15 14 14 14 14 14 14 14 15 16 16
95 94 96 95 93 89 88 85 80 78 70 67 67 67 63 63 68 71 76 80 79 69 68 70 72 71 68 57 53 44 41 31 25 21 16 15 14 14 14 14 15 15 15 16 15 16 18
89 87 97 97 97 97 97 96 95 93 97 95 94 91 89 88 87 88 90 88 83 79 77 76 76 70 62 54 48 43 38 35 28 24 20 17 15 14 15 15 16 16 16 17 18 19 20
86 86 87 91 96 96 95 96 96 96 98 98 96 97 94 91 93 93 96 89 84 82 80 78 79 75 62 56 48 42 33 28 27 25 21 19 15 18 16 18 20 18 19 19 19 19 20
60 70 70 77 80 89 90 93 90 91 91 91 92 91 90 84 90 92 97 93 88 84 76 78 81 75 61 58 52 41 35 32 32 30 26 23 26 22 20 22 25 21 20 20 20 19 22
51 49 51 56 57 65 72 73 71 77 78 75 76 74 73 70 77 88 92 97 93 84 83 83 79 73 63 60 59 52 49 45 42 35 27 26 27 28 25 24 24 24 25 26 26 27 27
44 47 45 48 52 50 55 57 59 61 58 55 52 56 51 44 52 70 83 90 91 87 77 76 72 69 72 66 58 48 43 42 36 33 29 26 28 24 24 27 28 29 30 31 30 30 30
46 43 41 40 44 46 48 52 48 45 45 48 48 44 41 44 48 54 70 67 70 63 59 50 48 48 46 46 45 37 41 37 37 31 28 28 26 27 28 29 31 32 34 35 35 32 31
55 50 48 44 38 39 39 41 45 43 39 41 42 41 40 42 50 49 50 54 51 61 47 33 30 28 32 37 40 29 31 33 35 32 31 30 32 33 34 34 36 38 37 37 35 32 34
55 61 58 54 49 43 37 34 36 38 35 38 39 41 38 41 41 40 41 46 56 44 51 23 28 28 29 30 26 27 26 30 33 30 31 35 33 34 35 36 37 40 36 34 32 33 33
49 49 49 57 72 57 52 43 34 35 31 29 29 36 38 44 41 38 44 48 53 52 54 26 32 35 38 35 27 34 37 37 37 39 37 37 34 33 34 35 35 36 37 38 40 39 42
69 58 51 47 47 66 63 53 49 41 37 33 33 35 40 38 41 37 48 55 60 61 31 32 31 37 40 38 30 32 38 36 37 46 43 36 37 37 38 39 40 38 40 50 53 51 44
69 72 68 58 49 46 53 66 67 60 50 44 42 44 47 44 46 50 50 72 71 46 40 36 33 35 41 37 34 31 33 37 33 33 38 41 35 30 31 34 36 37 41 50 50 53 44
63 66 74 70 66 53 49 42 55 62 63 63 59 54 63 56 58 64 70 80 56 48 44 39 39 40 43 41 42 38 39 39 38 36 39 38 35 34 34 36 36 38 38 36 42 44 52
60 56 68 78 78 68 57 50 41 54 59 61 63 63 59 55 69 81 91 80 57 48 49 45 42 45 47 45 46 46 45 39 36 36 37 39 44 41 39 38 38 37 36 43 54 60 59
67 56 58 77 86 84 71 58 51 44 55 62 62 70 61 63 81 97 92 84 64 58 59 57 55 56 50 49 50 51 46 41 39 41 45 47 47 44 43 43 42 43 41 42 48 52 64
91 65 59 76 90 94 89 72 57 51 50 62 70 60 60 70 81 86 83 79 75 66 64 65 61 55 56 54 52 49 48 48 49 47 49 45 54 57 51 49 46 42 41 44 61 51 54
95 77 76 76 79 93 98 90 72 58 52 57 70 67 55 58 91 74 78 78 78 66 64 68 63 62 62 58 62 60 55 53 50 48 48 53 63 69 61 54 51 46 44 44 56 60 43
94 83 77 79 82 81 92 99 92 74 58 61 71 69 69 69 61 67 62 64 66 62 71 67 63 66 65 66 69 60 54 58 58 60 61 61 66 72 62 62 64 62 52 53 58 65 53
92 88 81 79 74 74 75 88 98 97 79 65 72 77 53 71 59 58 67 58 55 57 55 59 62 67 63 64 63 63 60 58 56 61 66 67 65 72 66 64 69 60 54 57 60 46 66
91 85 81 71 71 65 69 78 98 98 98 86 72 70 62 50 48 46 55 49 46 46 56 56 59 59 61 55 61 61 66 70 70 67 66 67 75 74 69 71 72 64 56 54 47 51 52
88 85 77 73 64 61 67 77 99 98 99 95 79 64 61 53 51 61 41 34 38 42 43 42 46 52 55 56 63 68 75 78 76 77 79 83 86 90 87 77 73 61 49 46 47 45 50
84 81 80 77 74 69 80 80 90 99 98 88 78 69 66 60 51 42 37 42 44 38 40 45 41 45 48 54 57 64 68 66 66 74 81 81 82 80 78 71 70 45 42 48 55 50 50
74 79 83 76 77 78 86 84 94 99 99 96 79 84 72 68 51 49 45 37 43 48 50 43 41 46 48 53 54 59 53 56 60 65 71 75 80 85 80 75 61 48 53 61 59 45 53
88 83 80 80 82 82 88 89 95 99 99 99 85 89 90 75 65 49 49 48 48 45 49 44 45 50 61 63 66 73 65 71 86 80 79 78 80 84 86 88 77 57 64 57 63 61 63
83 88 86 84 86 90 93 95 98 98 99 94 83 82 92 90 76 70 58 54 53 51 47 44 47 53 54 59 64 68 68 68 82 79 78 85 85 83 85 85 70 62 61 58 54 51 58
76 83 87 90 95 98 96 97 98 98 98 95 85 81 84 90 92 85 75 64 52 50 54 46 47 51 57 59 61 66 71 70 73 75 74 82 86 89 80 91 87 64 70 64 49 57 68
70 78 81 86 98 99 99 98 98 98 98 99 89 85 79 86 96 96 94 97 75 73 63 57 40 40 46 54 56 56 63 65 69 71 73 74 79 81 74 82 74 71 68 69 63 63 66

GFSGBSN_prec_cthk_135.txt.gz
RH
86 81 78 80 74 66 57 48 47 49 48 47 48 49 51 50 50 49 48 46 43 40 40 41 44 48 51 52 50 47 40 36 28 24 22 20 20 18 16 15 15 14 13 14 14 15 16
89 90 87 84 81 80 72 65 59 54 49 49 49 50 48 48 49 50 47 46 45 44 52 54 56 57 61 61 57 52 45 41 32 27 23 20 18 15 15 15 15 14 14 14 14 14 14
94 93 93 91 89 92 89 84 82 72 63 57 55 54 52 50 49 51 53 56 56 59 68 68 66 62 63 60 59 55 53 43 35 30 23 17 15 15 15 16 16 16 14 15 15 15 15
94 93 95 98 98 94 96 96 95 92 87 84 83 78 74 73 71 70 73 77 75 75 78 73 71 70 66 59 53 52 51 44 39 32 25 21 18 16 15 15 17 18 16 16 16 17 18
87 91 95 97 97 94 95 95 97 97 98 97 95 95 96 95 95 90 88 88 87 85 79 76 73 73 70 61 54 51 45 44 35 31 26 24 19 18 16 17 21 21 18 18 18 18 18
73 77 80 85 89 88 85 95 95 98 97 97 98 98 98 99 98 94 94 89 88 86 84 79 76 72 69 64 58 48 47 44 34 28 29 28 26 23 21 23 23 24 23 24 22 19 20
55 58 59 65 71 75 77 83 88 92 92 93 94 92 94 95 92 91 94 93 89 87 82 80 76 72 67 63 61 54 49 49 46 45 43 41 36 28 26 26 26 25 25 26 26 25 27
47 50 53 57 60 62 62 66 66 75 73 74 82 84 85 82 82 82 86 86 87 84 80 77 76 73 75 76 73 64 55 53 52 49 41 36 34 29 26 25 25 26 28 29 29 29 29
56 52 48 47 52 56 58 59 63 53 58 58 61 68 65 67 72 71 72 67 76 86 84 70 61 64 61 67 69 66 59 51 49 47 39 39 29 24 24 26 27 29 31 31 31 31 29
54 57 54 52 49 48 48 53 52 53 51 53 49 57 51 55 57 60 57 64 69 72 72 52 44 36 36 40 43 42 56 50 44 45 42 40 31 26 27 30 32 34 32 33 34 31 30
57 61 61 59 49 51 53 48 46 48 44 44 48 47 48 45 52 49 50 51 54 52 38 32 37 38 38 36 32 34 34 35 37 37 35 28 28 30 33 34 35 35 33 32 32 32 31
50 54 54 57 61 61 50 49 48 48 47 38 36 39 46 51 48 45 49 57 61 51 40 30 37 40 42 38 30 34 36 38 39 39 37 32 31 32 34 34 34 32 34 35 36 35 35
66 62 62 52 52 56 60 65 61 50 56 50 39 40 42 44 45 44 51 63 67 63 34 32 35 40 41 42 37 36 41 41 42 50 47 40 41 39 38 36 37 37 40 43 41 40 37
68 73 76 74 65 52 52 56 53 56 59 67 57 53 51 43 46 43 46 60 60 39 37 36 31 41 41 38 35 32 42 41 37 37 41 41 35 34 36 39 41 38 40 43 47 44 37
58 70 75 72 78 74 65 53 46 42 44 57 61 60 59 60 50 58 64 74 48 41 37 33 34 36 40 37 38 33 38 41 40 38 38 38 37 35 33 32 35 39 40 41 44 45 46
54 69 72 75 70 77 78 73 59 50 41 42 57 70 70 67 70 70 82 76 57 51 46 40 37 38 41 40 41 41 41 39 38 38 42 44 42 37 36 38 41 42 42 46 49 53 50
63 59 72 71 72 70 76 78 73 63 53 47 53 66 60 72 81 86 95 74 59 56 55 55 48 47 44 45 45 47 48 45 43 42 43 45 45 46 46 45 44 47 48 50 53 52 54
54 54 64 78 72 71 71 76 83 77 66 59 58 55 55 82 91 95 94 78 68 67 64 62 60 55 54 52 53 54 53 53 50 45 46 50 57 55 49 47 50 54 53 54 57 48 47
61 58 62 75 86 78 75 72 90 87 77 64 65 60 48 56 95 88 87 87 85 80 75 70 67 64 64 61 61 56 56 57 52 54 57 57 57 56 53 53 56 60 59 61 64 60 48
73 67 67 99 83 89 83 76 88 95 86 82 78 72 62 72 84 75 91 84 95 87 80 80 77 76 71 67 62 66 65 65 65 70 66 64 63 67 63 64 64 69 65 60 63 63 60
92 80 91 87 91 95 86 75 90 98 98 92 80 86 67 64 67 65 68 73 84 83 78 84 85 77 69 71 68 71 67 68 72 67 64 65 65 72 66 67 65 65 66 67 67 61 74
93 95 99 97 98 94 88 85 88 97 99 99 90 82 84 54 49 65 77 68 60 69 77 82 88 74 75 81 76 77 73 72 66 60 59 65 70 68 72 67 72 67 62 64 70 65 57
86 90 96 98 98 98 94 85 90 91 97 99 94 88 83 65 58 67 64 59 67 72 76 75 72 74 78 84 75 76 70 63 64 63 62 66 81 84 76 76 77 66 60 62 54 49 47
80 87 90 95 94 93 93 91 86 89 96 97 94 84 90 81 63 51 44 51 60 65 75 75 72 69 64 76 65 62 64 61 62 63 69 78 90 95 79 75 75 52 47 45 47 45 46
76 76 87 89 92 87 85 85 79 84 93 96 99 91 82 86 74 57 53 46 51 56 56 52 54 54 52 50 55 53 49 51 52 55 62 70 76 76 80 78 65 52 51 56 55 44 46
74 73 76 84 88 85 82 77 76 72 92 96 99 95 88 84 90 70 56 53 55 53 55 52 49 53 57 58 59 57 55 51 47 53 51 53 65 74 91 93 78 52 55 59 57 59 46
74 77 74 79 85 84 78 69 71 67 71 94 98 97 94 79 85 85 60 50 48 50 49 50 54 52 51 67 73 67 55 49 56 56 57 74 92 92 87 85 65 57 60 62 71 58 51
71 80 79 75 78 79 79 73 69 82 83 93 95 98 94 81 77 85 83 58 50 49 49 49 53 54 57 55 56 59 58 50 48 51 55 71 85 80 82 92 76 64 64 69 68 66 62
74 84 89 91 89 82 80 73 75 89 97 99 95 98 93 90 85 90 83 70 59 55 55 52 39 40 40 50 56 58 57 55 48 50 56 64 70 71 67 61 66 67 65 71 75 73 70

GFSGBSN_prec_cthk_141.txt.gz
RH
93 95 89 86 77 65 58 50 45 41 40 40 42 43 45 47 47 47 46 45 43 42 39 35 32 29 26 31 36 35 39 42 40 36 31 27 26 24 22 18 15 15 15 14 14 16 17
93 91 92 96 92 91 86 80 68 63 58 54 50 49 49 49 48 48 46 44 42 41 37 34 32 30 34 34 41 44 45 47 44 39 33 30 28 25 23 19 18 18 15 13 13 13 13
95 93 93 92 92 97 94 94 92 90 82 74 65 61 53 51 52 50 48 45 42 40 38 37 34 37 37 38 47 50 50 50 46 42 36 32 28 25 24 21 18 15 12 13 13 15 15
95 98 97 95 94 95 94 92 92 89 89 87 83 76 72 65 59 55 50 47 45 46 43 42 41 46 45 49 54 54 54 55 53 46 38 33 30 27 23 19 14 13 13 13 17 15 17
88 91 93 97 96 95 97 96 94 91 92 91 91 88 86 76 77 70 69 61 57 59 56 52 52 60 57 56 58 56 58 56 54 45 37 32 31 28 21 19 17 16 13 17 20 17 19
72 81 84 89 94 95 94 96 95 95 97 95 93 94 94 92 91 89 89 86 82 81 76 74 69 71 63 62 62 57 52 56 55 44 36 32 29 26 22 19 18 22 24 18 19 24 22
61 70 70 71 72 82 93 90 88 90 92 94 94 96 99 98 97 97 94 92 89 86 84 76 78 72 67 66 63 58 58 55 51 45 38 33 28 26 27 25 23 23 25 26 23 25 25
59 58 57 67 70 64 69 72 82 86 90 89 94 94 95 97 98 95 92 91 92 89 84 81 75 74 72 71 73 67 61 55 51 49 46 45 38 36 34 36 34 32 30 27 26 26 25
53 56 56 58 61 64 60 61 54 64 78 86 89 93 92 92 93 95 92 95 97 96 91 74 69 71 70 69 69 73 68 61 56 55 51 49 47 41 40 37 34 32 28 26 27 27 24
43 48 52 56 61 59 49 54 59 58 62 67 74 81 83 85 87 86 94 94 96 96 88 63 61 60 63 68 62 66 69 67 61 59 58 54 52 49 51 47 35 31 29 28 26 26 26
47 42 42 50 56 61 61 57 50 55 63 58 62 57 71 78 85 78 79 88 91 91 87 48 60 59 63 65 55 52 56 63 59 59 62 57 57 55 48 43 39 35 34 30 28 27 27
60 54 46 42 52 57 60 62 62 62 60 58 67 57 58 70 74 81 74 80 87 92 82 54 53 50 52 56 56 53 52 60 60 57 59 57 53 45 41 42 38 34 27 25 26 27 30
70 68 61 55 53 53 57 59 63 60 63 62 58 58 63 72 64 70 72 82 85 69 51 50 51 48 52 53 50 47 46 53 51 56 57 56 50 47 39 35 31 26 26 32 38 40 36
56 71 75 70 65 60 58 56 59 65 61 65 61 59 65 70 77 72 73 90 86 44 50 45 45 51 51 51 50 46 50 45 41 39 37 46 51 40 38 29 29 27 29 35 36 35 31
49 47 63 73 81 76 72 68 63 57 62 63 61 56 62 74 81 85 88 96 68 47 44 45 47 55 51 50 51 46 47 46 42 40 39 38 44 39 36 32 33 43 43 36 41 38 39
53 49 44 58 74 85 87 82 78 68 61 59 59 63 51 69 80 93 97 86 58 49 47 43 49 52 49 53 49 44 46 43 43 39 40 40 48 40 37 37 39 42 36 39 37 42 42
43 45 48 41 52 70 84 90 92 86 78 68 62 57 46 62 88 94 96 76 60 64 56 53 46 45 43 48 56 45 40 42 42 39 40 39 39 40 36 34 37 41 38 37 41 45 51
39 39 37 41 44 45 70 80 92 98 97 91 84 62 42 34 84 93 97 61 65 70 69 63 58 49 44 46 52 51 45 46 40 36 38 39 44 50 42 41 42 45 43 47 57 52 49
49 43 43 39 48 48 50 77 89 96 99 97 96 80 63 57 66 83 71 65 76 72 70 74 67 55 54 55 58 53 53 57 46 42 45 48 52 57 58 53 49 46 46 48 53 59 58
60 54 44 35 52 48 52 66 89 96 94 99 98 92 91 89 71 64 62 50 69 63 75 78 74 70 69 67 60 59 60 51 47 47 51 55 58 60 60 65 67 60 51 52 55 61 52
69 62 58 52 51 58 51 60 82 98 97 99 99 94 64 74 82 62 65 55 64 71 63 76 76 79 73 71 68 70 71 60 62 64 62 64 63 74 62 61 70 69 64 61 63 53 65
73 65 70 73 72 66 55 55 71 92 99 99 98 96 82 70 57 70 66 78 69 63 67 64 67 68 71 77 75 84 82 80 77 70 73 73 80 83 78 64 66 64 57 59 58 52 55
82 70 70 79 84 75 72 55 58 89 99 99 98 98 88 74 66 65 71 52 66 67 64 66 73 79 83 81 86 91 90 88 90 90 86 81 83 87 87 74 71 68 55 48 44 45 54
83 73 70 73 83 84 80 66 51 81 95 98 94 98 96 80 71 70 56 56 65 61 67 69 75 84 92 93 89 95 97 92 91 83 86 82 77 80 74 74 83 53 49 49 52 47 44
80 76 73 72 84 93 92 75 53 83 97 99 99 97 96 80 77 73 64 62 62 64 89 90 82 81 91 89 95 98 96 97 89 81 80 88 77 75 79 74 60 49 50 45 45 36 40
72 77 75 76 86 94 89 76 60 77 98 97 99 94 89 93 87 70 68 66 72 73 74 74 83 82 80 87 97 95 91 77 72 75 74 84 85 85 74 73 65 43 48 45 44 44 42
68 73 73 74 83 89 92 78 64 89 98 95 97 90 85 94 85 84 84 70 72 82 77 76 76 83 74 82 91 85 74 65 74 69 75 71 71 64 61 59 48 47 52 51 64 54 47
65 68 69 75 81 90 98 83 77 95 98 93 83 80 86 87 92 92 82 73 70 72 85 90 95 88 85 88 88 78 68 64 64 58 71 67 67 55 47 49 48 48 57 60 58 55 49
65 66 68 74 75 86 96 96 98 97 90 98 93 86 84 91 97 94 89 71 79 87 79 83 88 80 86 80 71 65 66 68 64 71 60 68 60 56 53 55 56 57 55 52 51 45 48

GFSGBSN_prec_cthk_144.txt.gz
RH
93 92 93 85 80 69 58 53 51 46 41 39 38 39 40 41 42 43 44 44 43 41 40 37 34 31 26 27 25 26 23 25 31 33 31 28 27 27 25 23 22 17 18 16 19 15 16
95 96 97 98 98 95 86 74 68 58 52 53 54 49 45 44 42 42 41 42 44 41 40 37 34 31 33 29 31 26 24 31 36 37 34 30 28 30 28 26 24 24 19 15 14 13 12
97 96 96 98 98 97 98 96 95 85 74 66 59 59 57 58 55 54 55 54 50 46 43 39 37 36 34 26 29 33 30 37 40 38 36 33 31 30 29 26 24 20 17 15 14 12 13
95 97 97 95 94 99 98 97 97 98 95 95 89 87 78 72 68 61 57 54 51 46 45 43 41 42 36 29 33 34 36 42 47 45 40 37 34 30 29 26 24 19 17 15 12 14 15
87 89 92 97 97 96 97 96 99 99 97 99 99 94 94 88 84 79 74 69 63 60 56 54 48 51 42 37 38 42 41 49 52 52 45 38 35 32 30 25 23 20 15 14 19 17 19
76 83 82 84 91 96 96 94 96 97 97 97 96 98 96 93 89 87 88 81 81 75 69 67 60 63 48 44 48 48 45 51 57 54 44 39 34 32 29 24 21 20 22 18 21 24 23
58 64 69 76 81 85 91 92 94 96 95 94 95 97 97 97 97 95 95 92 88 84 80 71 69 65 65 60 56 54 53 54 57 52 46 41 37 30 28 24 20 22 23 25 21 25 27
53 60 63 63 63 72 80 85 81 83 89 96 95 94 97 94 96 99 97 96 94 92 81 76 71 72 68 69 63 65 56 59 57 50 48 45 40 31 30 31 26 22 21 24 26 29 28
37 47 52 55 59 64 70 75 72 75 74 80 91 94 98 96 95 96 95 95 96 96 88 73 69 68 70 73 71 68 62 58 54 54 51 48 43 40 37 35 33 32 33 34 33 32 32
34 38 43 47 50 56 62 64 64 58 63 76 82 81 80 82 94 92 93 94 96 97 93 68 62 60 68 75 67 69 69 66 62 58 56 52 50 48 46 43 40 43 41 37 34 32 31
45 40 42 42 45 48 53 57 62 58 53 57 61 69 73 73 78 80 87 89 98 95 94 59 67 59 63 69 64 61 67 72 63 60 62 55 56 54 52 49 49 49 44 41 40 40 35
56 54 49 48 46 42 48 54 59 59 57 56 60 57 53 69 75 89 83 92 95 97 89 65 67 62 61 62 65 62 64 68 71 73 68 57 63 57 53 51 49 45 43 42 40 39 37
47 48 60 58 59 55 48 52 54 56 61 59 60 59 54 67 71 80 88 92 98 89 59 59 58 58 59 60 66 65 61 64 67 75 70 59 55 59 52 48 43 43 40 42 45 46 40
40 39 46 60 63 63 60 55 58 55 55 56 61 61 52 55 81 81 94 96 95 60 57 51 51 53 55 60 62 67 59 58 62 67 64 64 65 58 54 49 44 38 37 39 40 39 36
45 41 42 42 51 62 71 66 68 66 61 57 56 54 52 48 69 84 98 98 76 56 52 55 54 58 56 56 60 63 61 59 56 63 67 52 55 51 59 52 46 37 40 33 39 36 43
49 47 48 46 45 44 66 76 81 78 73 70 62 55 41 40 66 85 99 96 67 55 54 56 60 56 56 56 62 62 58 51 51 54 57 52 60 53 51 51 44 35 42 53 48 47 45
49 45 48 51 47 45 49 70 87 88 87 83 76 69 37 34 60 82 98 90 58 53 62 62 60 53 52 60 67 65 57 52 51 55 57 53 57 55 49 50 42 38 43 43 43 41 41
41 43 45 46 47 48 45 48 76 89 99 98 92 84 54 40 60 76 87 68 55 60 66 73 66 60 56 57 55 57 63 54 55 59 57 56 54 58 48 42 41 49 45 41 50 40 41
44 41 40 39 37 39 40 42 56 84 97 98 99 90 80 72 61 70 63 55 58 64 70 82 78 62 61 58 56 56 62 70 63 58 58 59 60 62 56 50 46 43 43 47 48 53 57
62 54 52 49 43 39 34 34 46 69 95 99 99 99 99 99 75 55 51 41 48 51 66 74 80 79 68 61 59 61 58 67 69 66 56 54 51 55 57 52 60 57 52 50 53 64 62
80 77 74 58 53 47 37 36 40 59 92 99 98 98 98 92 89 80 59 46 58 59 59 70 78 72 74 78 70 66 67 70 67 68 59 55 53 65 57 62 62 69 72 66 63 59 68
86 76 80 77 64 53 46 35 47 45 81 99 98 98 98 87 76 78 76 73 54 41 53 57 59 66 71 70 83 90 91 85 72 62 61 61 67 71 74 56 66 73 61 67 71 75 70
92 82 76 81 72 61 58 44 50 48 78 99 98 97 99 87 87 82 72 58 63 72 70 58 65 67 73 68 81 88 90 95 89 81 75 77 85 79 76 69 76 91 58 63 60 59 60
94 87 83 82 78 63 69 67 64 57 76 97 98 99 98 97 91 68 59 57 61 62 80 78 70 63 66 80 79 80 88 90 88 88 86 86 92 96 84 78 88 55 54 60 62 55 50
94 82 84 81 78 66 68 84 74 69 70 94 95 98 98 93 95 72 69 61 57 60 78 79 80 87 86 67 84 97 92 97 89 87 93 92 90 89 86 78 66 51 59 57 57 48 45
91 79 77 81 79 71 73 84 82 77 71 86 94 92 99 93 92 77 78 66 63 63 65 65 92 86 74 79 92 94 92 92 89 83 81 91 86 89 84 82 73 44 57 56 59 58 41
91 77 70 76 77 70 70 82 92 86 74 77 86 92 98 94 94 89 94 88 60 66 70 64 70 65 84 97 92 87 85 72 91 77 87 96 96 92 89 88 65 50 61 53 62 50 40
90 77 66 73 74 74 78 90 91 89 79 71 74 93 95 96 88 84 85 91 74 64 68 74 83 79 97 91 83 78 80 74 81 73 81 75 75 76 75 79 69 44 52 51 51 49 48
89 76 67 71 73 74 87 91 90 93 78 66 84 98 98 97 95 87 84 84 92 73 61 75 71 75 81 82 67 63 70 71 76 76 66 77 69 68 63 59 51 48 53 50 50 53 52

GFSGBSN_prec_cthk_147.txt.gz
RH
97 93 91 93 87 81 68 60 53 50 45 40 39 40 41 43 44 45 41 40 40 39 39 37 35 32 28 28 21 23 21 20 20 20 24 24 25 23 26 23 23 22 21 21 22 20 28
97 96 96 95 96 98 92 85 74 69 63 56 51 49 49 48 49 46 43 40 40 38 38 37 35 33 35 31 23 29 23 21 22 23 27 30 27 24 26 25 26 25 24 22 20 16 15
95 95 93 96 97 96 95 98 98 92 84 73 70 65 59 57 54 54 54 51 48 46 46 40 42 41 41 27 27 27 26 24 27 26 32 32 30 29 27 29 27 26 26 23 20 17 15
91 96 97 97 97 94 97 99 97 96 96 96 91 86 77 72 69 61 57 56 57 55 51 49 49 50 45 28 31 27 26 28 33 29 34 34 35 32 30 28 28 28 24 22 16 17 18
87 92 91 94 95 95 95 95 98 98 98 99 98 97 97 94 90 89 79 79 74 71 65 60 56 58 46 35 33 32 31 33 38 36 41 42 37 36 33 31 30 26 24 20 18 17 18
62 72 84 89 90 91 92 94 96 95 94 97 99 98 98 99 96 97 94 91 87 80 76 72 65 66 47 43 43 39 37 41 46 45 50 45 40 38 35 34 35 26 26 24 23 20 22
49 54 61 72 78 82 87 91 93 94 94 91 93 95 96 96 93 98 96 92 91 85 79 69 66 65 57 56 53 51 49 43 51 53 51 48 45 40 35 31 26 24 25 25 23 25 26
39 42 48 54 60 67 71 78 80 81 90 94 94 94 95 95 95 94 97 95 93 90 83 72 68 69 62 66 66 62 58 53 57 58 58 52 46 41 34 31 31 30 26 24 25 25 24
41 37 36 46 51 56 62 64 67 70 73 72 83 90 93 94 95 97 97 97 95 93 87 74 68 63 66 71 72 68 64 58 60 62 59 53 46 45 39 34 34 33 29 24 25 26 27
42 41 38 38 42 45 48 58 64 63 67 62 70 78 91 91 94 95 96 96 96 96 94 71 68 57 60 70 69 72 67 63 63 59 58 52 50 49 48 41 37 37 36 34 33 33 37
55 52 48 40 39 44 44 43 50 55 60 58 65 67 69 68 80 83 89 88 91 90 95 65 64 62 57 65 65 68 71 75 67 61 61 54 54 57 56 51 51 49 49 49 46 43 42
65 63 59 55 51 45 47 48 47 48 52 53 59 65 66 67 69 78 83 95 89 94 92 66 65 66 69 70 68 67 70 76 77 80 72 60 61 62 60 59 58 58 55 53 51 51 54
55 54 57 60 55 57 52 51 50 52 54 51 51 57 58 55 60 84 94 96 96 93 63 59 63 65 70 72 73 76 70 77 80 84 78 73 64 63 66 58 59 57 59 63 63 60 52
48 48 48 51 51 46 60 61 58 53 56 58 54 52 51 48 60 72 92 98 94 64 58 55 57 60 60 66 71 76 77 70 73 80 81 86 79 72 67 58 58 56 57 67 63 61 49
49 46 44 40 39 40 38 54 65 65 59 61 67 58 49 38 51 71 91 98 74 53 51 57 70 63 55 60 65 71 79 79 71 68 82 84 73 64 63 62 62 65 63 54 54 49 52
52 49 47 45 43 43 40 36 56 69 71 71 74 70 47 43 42 62 88 90 67 49 46 65 78 69 60 61 66 72 70 61 64 62 73 83 84 63 56 60 62 64 57 60 61 60 58
56 56 52 52 48 44 44 44 40 54 72 82 89 86 51 55 51 70 86 77 61 52 54 68 72 68 60 58 64 79 71 64 60 57 61 66 77 67 57 60 64 66 67 59 60 57 58
48 49 48 46 45 44 44 48 41 38 66 91 99 98 65 81 83 66 76 65 48 54 64 64 71 67 63 62 62 70 78 68 61 62 67 67 72 69 59 56 60 61 61 60 69 56 59
36 36 37 40 37 38 41 41 46 45 56 83 98 98 93 97 97 72 58 49 60 57 61 66 70 68 68 68 70 61 64 66 60 64 71 72 82 75 67 60 53 58 53 52 54 60 57
54 51 51 44 39 37 33 35 36 37 47 77 99 97 98 99 91 81 65 49 46 41 64 69 66 75 77 69 68 66 70 66 66 66 67 71 73 71 74 63 59 55 51 51 58 69 59
64 64 68 70 63 54 44 39 36 36 38 71 97 98 97 99 97 88 72 56 51 50 55 57 72 62 72 78 73 72 75 72 70 68 74 74 74 76 68 63 60 58 53 53 60 60 67
85 84 82 81 79 74 64 47 40 38 42 69 96 98 99 95 97 95 89 79 66 49 47 46 53 52 70 81 77 75 78 75 72 68 72 75 81 78 76 63 62 66 55 61 66 66 64
95 96 94 90 89 81 73 66 50 46 53 70 93 96 99 96 99 97 94 57 59 58 59 49 46 54 70 70 77 74 72 68 73 77 75 79 81 78 77 63 73 83 52 59 57 55 64
98 99 98 97 94 83 74 69 59 55 58 66 75 96 98 94 95 95 90 73 57 65 62 60 68 67 53 78 77 91 86 79 93 83 88 90 88 87 83 70 88 51 54 58 60 58 61
97 98 99 99 95 84 75 71 68 62 64 70 66 88 98 93 88 95 95 87 70 70 77 74 70 86 75 78 89 97 94 93 89 86 91 86 84 89 90 91 73 52 57 58 63 55 58
97 98 98 99 96 85 79 77 72 68 78 76 69 82 98 97 90 93 95 95 82 69 67 70 83 87 88 98 99 94 93 87 95 89 81 89 84 87 98 97 94 55 58 57 63 54 54
98 98 98 97 94 82 78 78 76 72 84 81 70 85 99 96 84 95 91 95 89 80 68 69 80 88 97 98 98 96 94 79 89 87 89 91 95 89 93 94 81 57 63 61 70 59 54
97 98 97 95 86 76 77 80 76 76 86 88 76 79 91 89 83 89 98 88 93 85 74 62 84 92 98 97 97 97 96 83 81 72 79 84 92 91 95 98 87 63 62 64 59 57 51
96 98 96 92 78 72 78 79 75 79 92 91 82 72 87 98 91 89 99 94 88 77 80 69 69 76 82 85 86 86 93 91 82 85 73 89 77 85 81 77 60 59 62 63 62 62 56

GFSGBSN_prec_cthk_150.txt.gz
RH
93 95 92 90 86 86 86 77 62 52 48 45 41 38 36 37 40 42 40 40 38 42 38 35 35 35 32 29 21 21 20 21 21 20 19 20 21 19 19 22 21 20 21 21 23 24 27
91 93 95 95 95 93 92 88 89 85 74 63 56 53 49 46 45 44 43 41 40 41 40 40 39 38 35 30 20 25 24 21 20 21 22 23 21 21 24 25 25 23 23 25 24 25 24
93 95 94 95 96 95 95 96 94 94 95 88 76 68 66 60 55 52 50 48 47 48 50 49 45 41 40 24 25 29 26 24 26 25 24 26 23 26 26 29 28 27 28 28 27 26 24
88 93 95 94 96 96 96 98 97 98 98 98 94 92 88 74 70 67 64 58 55 53 54 53 52 51 48 35 37 32 30 26 29 28 28 29 27 30 30 30 29 30 29 29 28 26 22
63 71 83 93 95 96 97 98 98 98 98 97 97 97 97 97 92 87 81 75 71 67 63 61 61 66 57 48 42 38 35 30 35 32 33 34 32 31 31 33 33 32 31 29 25 19 19
49 54 57 63 78 89 93 95 97 96 97 96 96 98 98 99 97 96 92 89 89 84 80 77 78 78 60 54 53 45 40 39 39 43 40 41 38 34 38 37 39 37 32 26 24 21 21
49 48 48 50 57 67 76 88 93 94 93 95 96 95 97 96 95 96 94 94 92 93 88 81 78 71 65 61 60 55 50 48 45 45 43 45 47 40 39 42 38 34 30 28 25 24 22
42 46 47 50 48 48 54 65 73 80 83 87 91 92 95 95 96 93 95 97 96 93 87 80 78 75 67 69 65 63 59 54 53 50 55 55 48 41 45 44 39 36 35 32 28 28 27
36 36 40 39 40 47 50 50 54 70 73 70 73 76 80 91 91 95 96 95 96 96 94 76 72 66 68 70 66 63 65 60 55 55 61 60 53 52 50 45 41 40 35 32 30 29 28
45 39 36 39 39 39 40 46 45 48 53 65 64 66 75 81 89 92 93 92 96 97 93 70 70 61 60 66 65 62 66 65 59 58 62 62 60 56 52 49 43 41 37 34 30 33 34
63 59 53 48 43 40 38 44 46 44 47 49 50 61 74 79 79 83 80 83 92 98 95 63 66 64 62 65 62 62 67 75 63 61 64 60 56 59 56 54 50 46 41 40 39 36 36
78 74 69 65 59 56 51 46 48 52 50 51 49 53 56 66 68 64 80 87 95 98 94 67 65 70 69 68 65 63 68 75 72 69 67 63 61 61 56 58 58 58 57 54 51 52 55
89 83 77 69 64 67 65 60 54 55 56 58 57 53 51 50 54 64 86 90 98 95 67 64 65 69 70 71 70 70 74 82 84 85 79 78 70 66 69 68 64 60 60 68 66 65 59
80 73 64 58 56 58 58 64 65 66 62 64 67 62 57 51 45 64 86 92 96 70 63 56 64 69 71 71 72 71 74 81 86 86 85 87 83 77 69 69 69 66 65 75 84 73 60
69 63 60 58 54 52 50 51 56 60 75 72 74 72 67 52 51 66 79 90 91 58 52 54 64 65 60 61 64 72 76 73 75 81 91 95 89 71 70 72 71 69 66 64 73 69 70
73 67 66 61 58 54 53 50 49 47 60 76 83 79 67 68 65 67 82 85 65 51 52 62 63 61 60 55 61 70 74 69 74 75 78 76 84 77 68 65 71 76 71 70 82 88 75
66 71 66 65 63 62 58 47 45 45 46 65 84 85 71 80 82 81 83 62 52 48 64 67 64 60 55 60 65 73 71 64 65 70 78 80 82 78 74 64 65 67 73 73 74 75 72
52 57 58 57 60 58 53 51 46 45 48 56 81 92 68 92 99 87 70 61 43 49 59 68 61 60 58 66 70 69 69 68 66 63 67 68 81 77 75 75 66 66 68 72 90 85 75
40 45 51 52 52 52 52 49 47 47 53 53 70 77 74 99 96 95 65 52 55 49 55 63 70 66 60 70 73 66 65 65 71 68 69 71 89 88 67 69 63 64 65 72 81 78 72
38 40 37 36 38 39 41 44 43 46 55 68 65 76 74 97 98 96 83 62 59 43 55 61 80 70 64 67 73 74 65 64 66 71 70 72 85 94 88 70 65 61 62 66 71 79 73
58 55 54 50 46 43 39 41 39 41 46 73 69 68 80 97 94 98 90 67 61 60 58 60 79 69 72 78 73 73 67 67 63 65 71 77 76 83 86 89 80 68 61 60 62 64 67
80 75 67 64 60 62 65 62 55 48 57 66 65 56 75 87 89 98 97 93 77 56 60 59 75 69 73 74 61 73 77 75 69 69 70 73 80 80 84 78 78 75 67 65 66 65 64
91 89 84 82 82 80 71 72 74 74 76 75 61 54 71 82 94 98 93 94 70 55 73 61 54 57 84 60 61 72 83 82 78 70 76 77 78 84 92 79 80 79 55 60 60 59 61
93 92 91 92 94 93 88 85 86 84 80 72 62 58 74 84 91 95 96 86 92 84 79 79 79 55 47 60 70 75 87 91 86 80 77 79 76 85 85 83 95 56 52 55 54 52 57
96 96 92 93 95 97 98 91 90 89 86 79 67 67 63 72 86 92 95 98 91 93 91 79 81 83 60 58 74 80 86 96 90 86 78 75 81 92 97 96 79 57 51 54 60 44 51
97 96 95 94 97 98 96 97 91 87 83 81 71 64 74 77 81 95 97 96 98 93 97 71 77 79 86 89 97 96 88 81 91 90 83 84 80 92 98 95 92 55 47 50 64 51 49
98 98 98 96 95 98 98 98 92 85 83 82 75 74 78 69 69 88 91 96 98 92 94 83 77 88 86 95 97 95 90 77 87 88 88 91 92 91 91 97 76 54 53 56 74 44 47
97 97 98 98 98 98 98 98 91 85 83 85 74 76 74 68 72 91 91 84 90 96 89 76 86 86 94 95 97 98 98 98 98 87 84 84 87 95 98 98 85 58 67 60 61 54 46
95 98 98 98 98 98 99 96 89 83 85 86 81 81 73 77 77 87 79 78 95 92 97 90 70 71 81 90 98 98 97 95 98 95 84 89 75 83 79 74 73 70 66 58 65 61 55

GFSGBSN_prec_cthk_156.txt.gz
RH
89 89 91 88 87 87 86 87 88 85 83 72 66 56 50 47 45 42 40 38 38 38 39 37 37 35 33 34 24 25 25 23 25 27 27 22 22 22 18 17 19 18 16 17 18 18 21
87 87 89 87 88 87 87 88 89 89 85 86 85 81 74 59 56 52 48 45 42 40 39 39 38 36 39 38 24 25 28 28 27 28 28 27 26 21 18 18 20 19 18 19 19 20 22
75 78 82 84 86 88 87 86 90 91 91 88 87 91 86 84 83 81 73 64 55 50 47 47 48 46 46 36 29 27 27 28 25 26 27 27 30 28 22 20 20 22 21 19 20 21 24
63 63 64 68 75 81 84 86 87 88 91 91 92 91 91 90 88 87 89 83 80 74 69 65 59 54 52 38 36 31 34 34 37 38 34 28 39 35 29 27 27 25 24 22 21 24 26
40 46 48 51 54 63 72 82 87 89 90 91 92 92 90 91 92 91 92 90 86 81 79 80 77 70 58 49 50 51 50 45 47 46 43 41 44 41 37 34 31 32 31 25 27 29 28
37 38 39 42 44 46 53 58 69 81 91 91 91 90 91 92 92 91 90 90 86 83 84 83 83 84 72 62 59 60 61 56 55 55 54 51 50 43 36 36 40 32 30 31 30 28 27
30 33 36 37 37 41 42 46 51 56 64 73 86 89 93 93 93 92 91 90 89 87 88 84 85 78 76 72 66 68 69 65 64 62 63 61 62 52 37 38 36 36 31 30 27 28 28
43 42 39 36 39 42 41 42 43 43 48 52 60 64 78 90 92 94 94 93 92 90 86 80 76 76 76 79 74 69 74 73 66 68 69 66 64 56 52 48 48 45 40 38 34 34 30
59 56 51 44 38 38 40 41 44 44 46 44 47 50 57 62 77 87 94 95 94 96 91 71 71 65 66 71 67 65 77 76 71 68 70 70 64 61 61 55 51 50 48 44 43 40 31
60 61 61 58 51 46 44 41 39 41 43 43 46 47 48 51 54 63 75 76 94 93 95 67 70 60 61 65 64 61 70 77 75 71 69 66 64 64 63 59 55 55 52 50 48 44 43
78 73 70 66 59 55 53 49 42 42 40 38 41 42 43 45 56 61 61 66 76 79 95 64 65 62 65 65 65 68 67 72 67 73 72 59 64 67 69 61 61 60 59 62 57 49 44
83 84 84 80 75 73 69 63 58 51 46 48 46 45 42 40 48 54 61 61 67 76 72 57 64 69 73 75 72 72 75 75 73 80 75 68 67 71 68 68 68 67 71 61 58 54 53
87 92 92 90 88 87 85 83 78 71 64 57 53 53 49 46 59 60 60 67 70 71 38 37 42 65 75 80 78 75 80 79 82 88 84 80 71 70 69 72 73 75 75 75 70 66 54
87 96 98 98 98 96 95 94 91 87 82 77 70 60 57 56 61 71 75 78 75 43 41 38 43 53 69 76 77 79 83 86 84 83 81 88 87 73 71 73 78 77 70 76 82 73 62
81 92 97 98 98 99 99 98 94 90 83 85 87 82 71 65 74 78 77 85 70 45 47 49 46 48 56 55 74 79 82 85 76 80 87 85 81 71 71 77 79 80 76 74 81 88 87
81 85 95 97 98 98 98 92 86 84 83 84 84 87 80 80 88 95 97 80 64 46 55 64 62 54 59 48 63 77 79 73 76 73 74 83 92 80 78 78 78 82 77 86 97 96 94
71 69 78 86 92 94 94 89 77 72 73 73 80 81 72 82 94 99 95 96 64 62 71 77 75 72 57 51 58 59 68 68 70 67 72 80 95 87 91 90 82 92 91 97 96 98 93
62 63 67 72 84 92 92 86 76 68 69 75 78 79 71 77 99 99 97 82 71 68 74 75 83 86 72 63 62 66 65 71 61 69 75 78 95 98 95 83 78 86 95 98 98 97 97
52 48 54 58 63 72 90 93 90 87 76 71 78 76 76 79 94 98 88 95 90 73 80 90 83 84 88 88 81 68 64 59 60 76 79 88 96 98 96 93 86 87 84 88 93 99 98
52 47 48 42 53 61 76 91 94 93 92 86 80 77 71 75 93 90 96 89 95 83 81 78 84 87 91 95 94 82 60 64 71 74 76 90 95 88 89 84 84 93 92 90 95 98 96
50 49 44 41 35 48 63 79 88 91 95 93 85 77 72 74 63 84 98 94 88 92 87 87 82 80 84 83 97 94 64 77 72 67 80 94 93 97 96 91 87 87 87 84 89 88 93
67 63 60 60 45 40 45 62 76 83 91 91 73 70 69 67 70 71 76 91 94 86 94 94 92 72 74 77 81 88 90 90 73 60 85 90 96 96 96 90 94 93 82 84 83 77 82
82 79 76 73 61 53 44 50 56 66 78 73 60 59 63 60 60 66 65 74 89 98 88 86 86 94 89 65 66 61 73 86 95 90 90 93 93 97 96 87 93 95 70 72 74 75 75
97 94 87 83 75 65 61 63 72 74 71 65 67 68 70 56 55 50 51 60 70 85 97 96 97 97 66 83 82 77 75 82 91 85 97 93 98 98 97 93 97 63 57 60 63 63 66
98 98 97 93 88 79 76 77 74 72 80 80 78 74 70 67 54 46 43 45 46 59 71 86 84 80 87 93 95 97 88 84 66 75 87 94 94 98 98 95 81 58 49 55 63 57 50
98 97 99 97 94 92 92 94 94 89 86 90 87 85 86 84 70 69 63 49 47 50 59 60 77 85 96 99 98 96 93 73 76 73 74 84 88 95 97 97 92 49 42 48 64 54 44
90 97 98 98 96 96 97 98 98 97 96 95 91 94 94 87 76 77 69 59 51 62 69 66 78 90 91 98 98 97 86 74 80 74 77 87 94 97 90 85 72 54 54 56 71 41 40
93 93 96 98 98 97 97 98 98 98 98 98 86 92 90 87 79 79 70 61 58 59 67 80 87 92 98 99 98 94 98 88 84 67 70 73 85 90 85 86 80 61 64 58 47 47 44
98 97 95 98 98 98 98 97 98 98 98 99 93 84 94 93 81 81 71 58 54 50 63 78 82 96 96 99 96 90 87 91 97 97 91 88 86 90 86 71 62 61 55 56 56 52 51

GFSGBSN_prec_cthk_162.txt.gz
RH
86 89 91 90 92 93 92 90 87 86 84 80 81 82 83 79 75 67 62 56 52 48 45 43 40 38 38 41 34 32 29 29 29 28 27 27 25 22 20 19 18 21 20 20 19 18 19
84 86 87 88 92 92 92 91 86 86 86 86 87 86 86 85 84 81 80 77 70 65 59 53 49 46 48 46 37 34 34 33 34 33 31 30 27 29 25 21 20 22 22 22 21 20 18
78 81 83 82 84 86 87 83 87 86 86 86 85 85 84 86 86 85 82 79 80 78 75 75 71 71 66 57 57 56 50 42 34 36 34 33 34 34 32 27 27 26 26 25 23 21 19
68 69 72 70 70 70 72 74 75 74 77 83 85 86 84 82 84 86 83 82 80 79 78 76 73 73 66 60 60 59 58 57 55 46 39 36 38 38 37 39 36 34 31 30 26 22 20
53 52 47 50 55 55 56 57 59 62 64 66 74 75 78 79 81 81 82 83 80 79 77 75 73 74 64 62 61 60 59 59 58 57 52 47 46 46 45 45 42 39 35 31 28 25 24
42 39 39 38 37 39 39 40 40 41 42 47 53 60 67 72 73 76 77 79 82 79 77 77 77 76 65 64 65 63 64 64 65 67 65 61 56 51 51 45 41 37 38 38 33 30 30
32 34 41 44 42 38 36 37 37 37 36 36 37 40 48 52 62 66 71 75 78 79 76 73 71 66 67 67 68 68 69 68 68 68 66 68 61 51 47 46 45 42 43 42 36 31 27
34 35 38 37 37 37 38 36 36 34 34 33 34 34 35 36 40 47 56 59 69 72 68 64 67 65 66 72 66 67 71 68 73 69 69 70 61 57 57 53 53 52 53 50 48 45 41
52 50 49 48 48 49 46 44 44 42 37 36 33 31 32 31 31 31 35 39 48 58 61 42 44 50 56 65 55 57 67 66 68 71 73 70 58 61 62 62 65 60 59 58 57 56 52
68 65 63 64 62 65 64 59 55 53 49 44 44 39 36 33 30 29 32 35 37 45 44 23 31 33 39 46 45 45 53 63 64 66 74 68 68 70 67 63 71 66 66 66 65 66 58
74 73 70 71 70 71 71 71 66 64 64 61 60 57 49 46 44 42 38 36 45 44 42 24 34 36 40 43 44 46 47 59 58 62 70 51 66 72 70 66 73 64 76 74 72 68 66
72 75 78 78 77 77 76 76 78 78 72 68 62 58 61 60 57 49 50 50 64 61 42 21 35 40 44 46 48 55 55 57 58 62 64 58 66 67 67 72 75 75 79 78 75 73 69
72 72 76 80 81 83 87 89 90 84 79 75 72 67 63 61 64 60 63 73 85 68 28 21 28 37 40 47 50 53 61 61 64 75 71 62 59 63 72 73 75 77 87 98 96 85 60
72 71 70 73 75 79 87 90 91 90 87 82 77 74 72 64 72 65 75 91 89 40 39 34 38 43 44 44 47 48 57 73 69 65 62 65 64 58 55 66 74 76 88 81 84 72 54
71 72 73 74 75 77 84 97 97 95 92 87 82 76 74 81 81 85 97 99 69 50 53 52 41 50 47 45 47 54 60 60 62 66 66 59 58 63 62 60 73 78 88 73 91 86 83
74 76 74 75 78 79 84 91 97 99 98 96 90 84 76 77 90 91 98 97 86 72 74 70 61 53 46 44 57 55 54 56 53 61 68 69 81 73 75 75 75 78 80 97 98 97 93
68 78 78 76 83 85 89 92 95 96 98 99 98 93 77 72 90 97 98 89 93 89 92 84 72 76 66 62 58 52 56 62 72 69 72 76 87 84 82 78 76 83 90 93 96 93 89
68 63 70 77 84 88 94 98 96 95 98 99 98 92 74 76 89 92 93 93 93 84 93 94 90 89 80 75 78 64 53 61 77 63 60 60 76 77 73 76 83 92 95 95 99 97 93
64 61 59 54 73 87 90 96 98 98 98 98 97 91 77 85 90 82 76 87 93 93 93 98 90 82 79 74 80 72 76 84 75 67 63 61 62 70 68 75 84 89 84 95 97 98 98
44 51 54 50 48 50 68 90 98 98 98 98 96 93 84 84 83 80 79 81 84 95 96 92 96 88 86 92 91 89 89 90 85 77 74 75 72 71 64 81 92 94 97 97 98 98 98
43 43 45 48 46 44 42 61 94 99 98 98 93 86 79 81 77 81 85 83 81 82 85 89 96 91 91 92 94 94 88 91 96 97 94 94 90 82 73 77 79 80 86 85 98 98 98
68 56 49 48 48 50 45 42 77 96 99 98 92 85 81 83 74 73 77 82 88 85 96 96 96 90 98 94 83 84 91 84 86 86 92 97 98 97 84 76 74 73 67 73 79 86 96
88 85 72 62 57 56 57 47 46 80 93 96 95 87 86 81 77 80 78 75 75 82 78 91 97 94 93 98 94 85 88 85 80 81 86 93 97 91 84 79 74 77 58 65 59 67 73
96 95 93 81 69 57 57 58 48 52 62 77 87 89 93 85 78 76 76 70 64 65 77 84 90 95 89 92 83 80 79 75 78 74 86 87 94 95 82 78 87 77 61 59 63 64 61
94 97 98 96 87 73 59 67 64 60 64 72 73 82 87 84 74 73 72 66 63 53 55 68 70 73 74 75 85 92 82 78 65 67 74 81 85 89 86 79 72 68 68 70 69 57 58
82 92 96 98 96 92 76 72 71 69 63 68 75 79 78 74 66 68 66 65 63 56 46 48 58 65 75 77 75 88 84 76 73 64 59 73 83 85 78 87 84 52 61 65 73 64 50
83 81 90 96 98 95 93 90 85 83 72 70 73 71 77 73 72 73 70 67 58 53 50 52 56 56 60 75 84 79 78 79 87 75 81 81 92 90 79 80 65 46 55 63 67 50 54
95 92 86 92 97 98 96 96 93 91 83 71 79 74 77 81 78 79 77 78 76 73 72 67 58 55 55 69 80 79 80 75 85 74 78 83 92 90 84 87 78 49 59 67 49 57 53
96 96 94 89 94 98 97 96 98 96 90 78 87 85 86 82 79 77 76 75 74 74 76 73 66 58 58 75 91 92 90 85 90 83 72 76 71 76 75 66 63 63 62 64 63 57 52

GFSGBSN_prec_cthk_165.txt.gz
RH
84 85 86 87 87 87 85 84 84 83 82 82 79 75 73 74 75 73 72 71 69 64 59 54 51 49 44 42 39 36 32 30 27 29 30 31 31 29 28 24 22 21 18 17 16 18 18
82 83 84 86 86 87 88 87 86 88 83 83 85 83 82 81 79 78 77 76 75 73 71 70 68 66 67 58 49 47 43 40 37 37 37 36 37 34 34 30 26 23 21 20 19 20 20
77 76 78 80 81 82 84 85 84 85 84 82 81 82 80 79 80 80 80 80 80 77 75 73 71 71 68 58 59 58 56 54 55 51 42 39 38 39 37 36 34 31 28 26 23 22 23
75 72 71 72 73 74 75 75 74 74 77 74 71 72 74 79 78 78 79 79 78 77 77 76 76 75 65 56 59 57 57 56 56 56 53 52 50 40 41 39 35 37 38 35 29 30 28
63 59 60 58 58 62 62 62 62 61 61 62 63 63 66 67 68 71 72 75 75 74 73 73 73 75 63 58 58 58 58 58 61 60 59 54 52 50 45 42 41 39 38 40 36 34 32
66 62 55 46 43 43 45 45 43 44 44 46 47 50 53 57 61 62 66 68 68 66 68 69 69 73 59 58 60 60 60 63 61 65 65 65 59 55 52 47 43 41 43 43 41 38 32
57 55 49 44 44 39 35 32 33 35 36 36 35 35 36 39 44 48 54 63 64 64 64 58 60 56 57 62 58 61 63 64 65 66 65 68 66 59 54 52 50 48 42 41 42 42 36
59 61 51 47 48 48 41 36 33 32 32 32 32 33 31 31 31 33 36 49 55 60 55 49 47 48 48 55 54 57 67 69 68 62 66 68 58 59 57 56 53 52 50 48 50 52 50
69 66 59 54 54 52 48 47 45 43 41 37 36 34 33 30 29 26 29 34 40 42 42 28 29 28 33 42 39 41 58 61 64 62 64 66 44 64 64 59 56 54 53 57 56 58 56
73 71 69 66 62 61 65 63 61 57 54 51 49 43 40 38 32 39 33 38 34 38 35 15 21 22 25 29 35 33 36 46 52 51 58 54 48 60 65 61 60 57 60 63 62 65 60
76 76 75 75 72 70 72 73 73 69 66 63 59 58 58 53 56 52 56 47 47 50 47 12 20 32 31 32 31 37 34 41 39 43 62 37 48 58 61 57 68 57 67 73 76 75 77
74 74 71 71 72 72 73 73 76 76 74 73 70 70 66 64 63 60 60 65 70 76 63 24 31 32 35 32 32 42 40 40 43 49 57 40 51 51 54 55 59 63 75 80 83 80 88
77 73 70 67 67 70 71 72 76 76 77 78 78 77 75 80 77 78 71 72 92 86 41 33 37 45 47 47 46 48 51 47 47 58 55 43 42 40 53 63 59 63 74 96 95 97 75
83 76 71 68 67 69 71 74 80 84 85 90 87 83 81 81 86 83 88 97 98 50 46 42 50 45 52 50 54 62 59 57 56 63 57 62 54 47 45 55 60 62 69 83 81 73 57
83 78 74 71 69 67 69 71 74 79 88 95 92 90 88 83 84 87 97 98 92 50 48 61 51 48 39 49 52 55 60 56 56 59 70 65 54 51 69 66 66 57 80 60 81 67 83
74 72 72 71 72 74 73 72 74 76 87 99 94 97 90 86 87 95 99 96 84 66 67 79 69 62 56 42 54 60 61 57 61 66 62 61 72 57 62 69 67 65 68 91 95 95 94
66 64 66 66 65 66 74 76 78 79 83 96 99 99 76 88 89 100 98 92 81 76 86 86 75 73 68 60 52 52 59 69 75 70 70 65 74 55 68 64 64 78 79 88 88 92 83
66 58 54 64 64 71 75 80 86 89 91 90 98 99 94 92 95 94 90 76 84 79 93 95 89 83 84 80 84 73 64 72 82 82 81 73 84 84 88 73 81 76 82 92 98 98 85
66 68 65 59 57 70 76 86 97 99 96 99 98 98 98 99 97 83 70 77 82 78 82 98 96 89 88 81 88 81 74 90 82 81 85 77 70 72 59 60 69 72 68 82 88 97 97
52 53 57 60 53 52 64 84 92 97 99 98 99 98 98 98 90 85 76 78 85 83 82 89 91 89 96 90 86 93 76 81 76 86 86 80 71 66 68 59 77 93 84 80 86 94 96
33 39 42 47 49 47 46 58 78 92 96 99 97 96 92 97 92 89 86 91 82 77 81 87 83 93 96 95 91 88 84 82 74 78 90 95 89 90 75 70 70 88 91 85 86 78 94
80 62 47 42 49 57 47 43 46 77 94 99 95 96 94 94 86 89 90 92 83 80 92 96 97 92 94 96 97 93 96 90 75 82 87 92 95 95 85 67 72 78 68 65 72 66 68
88 85 77 60 54 52 52 45 43 66 96 98 96 92 92 84 86 85 82 78 78 78 76 83 86 90 85 98 92 87 78 75 79 83 84 96 91 95 87 75 90 87 62 57 56 58 57
77 89 91 81 68 63 55 53 51 53 80 91 93 95 95 89 85 84 83 84 83 77 76 76 85 94 87 89 83 80 73 71 74 72 77 84 92 94 87 79 88 72 73 68 70 61 62
78 77 88 91 85 77 69 65 58 53 55 85 92 95 90 91 88 84 80 79 77 75 71 70 69 69 71 73 85 87 71 77 64 62 67 72 83 91 93 85 70 58 62 65 75 73 65
90 83 86 98 98 92 82 67 63 60 56 62 83 89 93 91 83 84 83 78 74 68 66 65 67 55 61 73 78 90 78 81 76 74 70 69 77 89 86 93 85 48 61 68 72 63 60
97 87 84 91 99 98 92 79 65 66 62 64 68 65 82 84 79 73 69 71 64 65 77 76 76 69 57 70 85 89 81 67 70 76 81 86 82 89 87 88 71 42 54 58 73 47 62
97 88 84 86 97 98 97 92 76 69 74 71 80 74 79 81 78 73 70 72 70 73 78 89 84 74 74 78 77 78 81 75 69 60 66 72 97 86 86 91 83 59 54 56 45 51 55
93 88 82 83 92 97 98 96 91 80 79 81 87 85 85 86 82 74 78 73 76 79 86 82 83 75 70 79 87 90 83 85 75 72 68 74 92 85 81 71 65 68 61 69 67 72 70

GFSGBSN_prec_cthk_168.txt.gz
RH
81 80 80 81 81 80 81 80 82 79 78 76 74 73 74 75 71 69 68 65 63 62 62 61 59 60 58 57 52 49 42 38 35 33 33 32 32 31 31 30 30 27 24 24 22 21 19
84 81 81 81 80 80 80 81 80 80 81 82 80 80 77 75 76 76 75 75 71 70 69 69 68 66 66 61 56 55 51 48 47 47 46 42 40 38 36 35 33 31 29 26 24 23 20
83 80 79 78 77 77 78 79 79 79 79 80 79 77 77 75 75 75 76 75 75 73 72 72 72 70 64 55 57 54 53 52 52 52 51 52 51 46 39 37 36 36 35 33 30 27 24
83 83 80 77 74 72 73 76 75 75 75 74 73 71 72 69 68 68 68 69 71 72 72 71 70 71 62 51 53 53 52 50 52 53 53 55 56 53 50 45 42 41 37 34 30 32 33
87 85 82 78 74 68 66 64 66 66 63 64 64 62 62 61 61 62 62 63 63 64 66 67 66 65 57 51 49 49 52 52 55 55 55 56 58 56 55 53 47 46 39 39 33 36 36
85 82 78 72 66 60 55 53 50 46 45 48 49 48 47 49 52 55 56 59 60 58 59 61 60 63 48 48 49 50 51 55 56 57 60 62 61 55 56 55 46 44 42 40 38 38 42
79 77 76 73 66 60 54 50 45 43 40 36 35 35 35 34 34 34 36 42 50 55 56 49 51 47 43 47 49 50 51 53 54 57 62 65 64 60 59 56 52 50 48 44 40 39 41
78 76 70 67 63 57 56 53 51 46 43 41 41 35 32 31 29 28 27 34 42 52 49 45 39 35 37 36 36 40 48 54 54 53 59 63 52 60 61 62 60 54 57 48 45 44 45
83 76 74 71 68 64 62 62 57 55 50 47 46 42 37 34 32 27 26 27 37 44 40 26 21 22 20 30 30 29 38 45 51 47 51 60 37 61 61 61 60 57 54 52 50 50 50
89 90 84 79 73 67 65 67 65 62 60 61 58 54 52 46 36 42 40 40 43 38 38 16 15 17 19 24 27 25 27 36 38 39 48 48 36 53 50 48 55 66 54 56 58 61 62
86 85 84 83 79 76 74 71 71 73 73 71 68 65 60 55 54 58 64 63 51 59 61 17 20 22 28 27 23 28 26 38 33 36 57 32 38 45 41 37 49 50 61 60 70 72 80
84 83 83 82 79 82 79 79 77 77 75 76 72 69 67 65 60 57 66 78 80 87 67 29 26 32 36 36 31 41 43 41 35 39 47 31 40 43 38 44 52 56 58 65 81 85 96
86 82 81 78 76 74 71 68 68 70 74 78 77 76 72 72 73 79 73 80 92 94 43 33 33 44 46 40 43 45 46 55 49 53 48 37 34 33 40 50 44 51 56 80 85 81 75
92 85 83 79 75 72 67 64 64 62 63 68 72 73 70 69 76 82 92 98 98 59 48 38 43 51 48 44 51 56 57 54 61 63 61 60 54 33 36 46 37 53 58 68 73 72 55
98 94 90 84 78 75 69 66 64 64 65 66 69 74 77 71 78 84 97 98 94 65 55 58 69 66 60 44 50 57 66 78 68 63 65 58 59 44 50 62 66 48 74 54 84 68 77
96 95 89 86 82 76 71 68 68 70 70 70 73 78 66 78 85 94 100 97 88 72 73 81 92 70 71 60 55 53 48 60 62 73 83 85 85 43 51 71 68 66 60 84 88 92 90
88 88 84 82 78 73 71 70 68 70 70 71 74 78 58 78 92 100 98 95 83 76 81 94 88 85 76 76 71 67 71 60 84 82 75 90 95 56 65 66 76 81 89 89 97 95 68
77 73 69 68 66 68 63 63 68 74 79 81 76 82 64 85 97 97 95 71 79 78 81 91 88 86 81 81 81 79 76 94 88 82 88 89 96 91 86 80 77 84 89 85 92 86 98
68 66 64 61 58 60 64 61 67 73 85 86 88 86 78 89 98 97 72 77 82 82 79 98 93 89 92 90 91 79 74 94 93 92 86 88 89 88 67 64 71 79 73 82 91 99 98
48 52 64 64 64 51 58 72 68 79 90 94 98 97 87 91 86 98 88 76 79 80 81 84 97 90 87 83 82 92 85 90 95 90 87 80 81 89 97 96 87 93 87 88 97 96 81
47 36 47 49 58 62 54 50 57 79 95 99 98 91 92 95 84 92 90 96 83 83 91 90 77 75 78 81 75 81 86 84 85 94 88 78 74 76 78 74 73 74 73 80 96 95 97
84 76 47 40 45 47 52 52 52 74 82 95 97 94 92 92 84 90 88 96 87 84 89 93 90 78 77 84 89 93 94 88 87 92 90 86 80 78 66 65 71 74 66 58 59 77 90
79 84 88 75 53 55 54 61 47 52 77 81 88 93 98 90 89 94 94 90 86 84 86 81 74 74 74 78 80 86 81 80 82 89 87 90 83 77 63 56 70 72 44 54 60 51 58
67 76 87 89 82 65 57 59 65 49 47 61 82 92 98 93 87 89 85 91 85 82 85 74 73 73 75 78 77 69 69 64 72 73 75 77 80 88 78 76 91 58 53 61 66 64 58
82 74 75 92 96 84 71 59 65 60 47 58 85 94 98 91 88 88 91 87 85 81 79 77 70 67 69 69 68 66 69 71 59 56 59 63 69 85 82 70 74 57 47 54 68 73 72
79 86 81 78 90 97 85 68 63 64 52 52 78 95 94 95 86 86 86 85 83 80 75 72 73 75 68 62 62 73 70 75 84 70 65 57 61 81 80 77 75 36 43 62 64 75 62
77 86 89 86 87 95 95 76 68 64 63 55 70 94 98 97 84 91 89 86 84 79 60 59 66 71 78 73 77 78 69 73 77 70 74 91 97 97 94 91 63 44 49 60 88 66 64
79 88 93 90 88 90 98 91 80 74 73 64 63 82 92 93 87 85 84 77 69 61 59 68 78 89 88 87 84 78 71 69 74 63 64 65 80 90 97 97 87 69 71 67 62 59 61
84 86 97 97 90 89 97 95 88 83 71 71 71 73 78 83 77 74 69 64 58 62 66 75 81 88 94 92 92 95 95 89 90 80 67 67 74 87 92 96 83 71 68 73 83 72 69

GFSGBSN_prec_cthk_174.txt.gz
RH
85 79 77 82 81 82 81 83 82 80 78 69 67 67 66 64 61 59 57 56 55 53 52 51 50 50 51 53 47 52 49 45 44 42 42 43 45 44 42 41 40 38 34 32 30 28 26
91 90 90 88 86 89 89 87 87 86 83 80 79 78 75 72 71 70 67 66 64 61 58 58 56 55 56 56 48 50 49 49 50 49 49 50 50 49 47 44 43 40 38 36 32 30 29
93 95 94 94 95 95 92 90 87 86 84 83 82 80 76 73 73 72 71 68 65 63 60 57 55 55 54 44 43 45 47 47 48 49 49 51 52 54 50 49 47 45 44 38 35 33 33
97 96 96 96 95 92 90 89 88 88 84 81 81 80 76 73 72 71 68 65 61 58 55 54 51 50 48 40 39 37 39 39 41 43 44 48 53 54 53 53 52 53 49 45 33 36 35
97 97 98 98 96 95 94 91 89 86 83 80 77 73 71 70 67 65 62 59 56 52 50 50 49 49 44 38 38 39 38 39 39 39 40 43 47 51 55 58 59 55 55 45 41 38 37
97 98 99 99 99 98 97 94 90 86 85 79 74 72 68 64 60 56 50 44 41 39 40 42 43 45 35 33 33 37 37 38 39 40 42 44 49 51 55 57 57 56 55 46 44 38 42
98 99 99 99 98 98 98 97 93 86 83 78 74 70 64 59 53 47 40 36 38 40 43 33 33 32 31 32 35 35 34 34 33 37 40 38 46 51 46 45 44 49 49 43 39 41 48
99 99 99 99 98 98 98 96 93 85 82 78 71 66 60 56 50 47 42 38 42 44 40 33 30 30 26 22 30 21 33 36 36 41 37 42 43 36 41 43 45 48 51 48 41 46 54
99 99 98 99 98 98 98 97 95 90 81 73 66 63 61 57 53 49 48 45 41 44 40 31 28 27 27 25 26 21 18 25 36 43 44 41 32 31 40 41 48 49 49 49 48 50 51
97 97 97 97 97 97 97 96 94 88 79 75 73 70 66 61 56 56 55 53 48 48 45 33 32 28 30 32 29 21 23 22 32 40 43 41 31 32 37 37 50 51 44 52 54 60 59
96 97 96 98 96 96 96 95 92 92 87 78 77 73 71 68 65 68 66 65 59 51 54 34 33 31 32 31 26 30 30 33 30 31 42 30 34 35 35 28 45 40 50 57 55 54 62
97 98 96 98 97 97 97 97 94 93 90 87 90 88 86 81 79 81 75 75 66 68 63 44 42 45 46 40 34 33 41 43 39 41 42 31 34 37 31 33 38 41 43 51 58 58 74
97 98 98 98 97 97 97 96 96 94 92 91 92 89 86 83 83 79 78 78 81 80 48 45 48 53 52 47 45 44 43 51 54 64 58 43 37 35 42 47 36 48 51 67 75 70 67
98 98 97 98 97 98 96 95 95 95 95 94 93 90 89 89 89 87 85 92 91 58 55 49 49 47 48 44 45 46 52 55 52 56 63 79 57 33 36 43 40 42 46 71 67 64 56
98 98 97 98 98 97 95 93 94 95 95 95 94 94 92 91 92 90 93 95 75 60 57 60 53 56 48 48 54 47 51 63 61 70 81 95 89 46 53 60 61 40 61 38 72 59 77
99 98 98 98 98 96 94 89 87 89 90 88 85 85 84 88 90 90 94 77 67 57 59 64 67 66 62 56 60 70 61 78 78 80 93 97 97 71 66 75 69 75 66 80 78 82 81
98 99 99 98 98 97 95 90 88 87 87 86 86 85 80 80 86 93 91 75 59 51 57 62 68 72 72 68 67 76 88 90 90 91 90 96 98 83 78 80 86 83 81 90 96 96 83
98 98 98 98 98 98 98 96 93 92 92 92 86 84 74 76 84 84 77 72 61 55 60 66 72 70 68 63 69 78 79 97 95 98 98 99 98 98 84 70 82 95 98 99 98 98 98
97 98 98 98 98 98 98 97 97 96 96 94 91 85 83 83 81 74 69 71 70 61 62 73 84 84 81 87 98 97 94 91 85 91 91 91 97 94 76 84 86 97 98 97 97 99 98
82 96 97 98 98 97 97 97 95 96 97 96 92 92 87 87 80 74 73 73 69 63 69 85 97 94 94 96 97 96 86 79 75 82 86 91 94 98 96 92 83 94 92 91 98 97 96
79 73 75 89 86 90 88 95 96 97 97 98 96 84 76 79 72 71 76 68 64 69 71 70 80 82 84 96 92 95 92 84 73 71 81 84 86 82 87 85 91 87 77 78 92 91 97
66 74 68 56 72 86 83 89 92 94 98 98 92 83 75 69 61 73 82 69 71 67 76 66 88 89 98 96 85 84 85 77 68 61 60 63 69 69 68 84 85 90 65 63 65 69 70
49 67 69 67 56 54 68 80 77 85 87 85 79 75 70 69 77 74 76 67 68 74 71 75 86 95 98 90 82 74 69 62 56 48 47 52 58 63 58 62 84 85 50 48 47 51 60
58 51 63 67 76 70 56 60 69 60 67 69 75 75 80 79 73 72 74 72 76 84 94 93 97 96 84 79 74 68 60 55 50 42 40 38 44 56 59 57 83 54 45 46 49 44 48
75 68 63 67 71 78 79 67 72 69 58 58 63 68 76 77 76 75 76 76 78 81 86 87 84 80 75 70 66 59 55 46 40 34 36 39 55 74 84 69 59 46 49 50 51 56 71
79 86 84 76 78 83 85 81 75 82 87 74 64 62 69 76 75 86 87 81 86 90 88 79 75 70 66 62 62 64 62 47 45 35 29 49 57 84 92 94 86 48 53 59 64 66 69
73 76 85 89 79 85 89 91 80 85 89 87 75 67 72 72 75 83 84 92 88 86 81 76 71 67 58 59 64 63 60 51 56 45 47 57 64 86 93 97 87 80 75 70 82 71 75
79 86 87 93 88 81 89 97 98 87 90 94 84 74 67 69 79 91 95 89 88 81 77 67 65 64 64 66 64 62 70 67 75 67 77 81 81 81 93 96 94 96 89 95 92 79 88
80 86 87 85 89 91 90 95 98 93 88 95 97 80 68 78 81 88 86 86 82 77 72 68 62 61 60 63 68 72 73 81 78 73 57 80 92 97 97 97 94 85 83 88 89 82 90

GFSGBSN_prec_cthk_177.txt.gz
RH
64 63 60 57 56 55 54 54 54 55 60 62 65 62 63 66 64 57 54 51 49 49 48 47 45 43 43 46 40 44 44 44 45 46 46 45 46 45 43 40 41 41 38 36 34 33 31
73 73 75 73 72 69 71 73 73 73 79 79 76 77 76 74 74 70 63 62 63 63 58 57 53 50 50 51 46 49 49 49 49 50 49 48 49 50 48 47 46 42 42 41 39 37 35
83 82 80 81 84 85 85 86 85 83 82 84 83 85 83 82 81 78 73 70 69 66 62 59 57 55 54 46 44 43 41 40 40 44 48 50 49 50 50 51 48 47 47 43 41 38 37
93 93 91 91 94 93 93 92 91 91 90 88 87 85 80 79 76 75 74 73 68 64 61 59 55 53 48 41 39 38 38 39 40 40 41 43 47 48 50 52 51 51 49 50 37 38 36
95 96 96 95 97 96 95 94 94 94 93 90 89 86 81 79 77 76 73 68 63 59 56 54 50 49 44 38 38 41 41 41 40 42 42 44 45 45 48 52 53 53 52 50 45 38 37
98 97 99 98 98 97 97 96 98 96 94 92 90 87 84 78 75 71 65 59 55 50 47 45 45 45 36 32 32 32 37 37 36 38 40 39 42 46 48 51 51 48 54 49 45 37 36
96 99 97 99 98 99 98 97 97 97 96 96 91 86 83 78 74 66 59 53 49 50 49 38 36 33 33 36 33 32 34 32 33 36 40 39 45 48 39 37 34 40 44 44 39 35 39
98 96 98 99 99 99 99 98 96 97 98 97 92 89 81 75 67 60 53 49 50 49 43 35 34 34 29 28 31 26 32 36 40 42 40 45 43 37 37 38 41 44 48 43 37 38 41
97 96 99 98 99 99 99 96 97 99 97 95 90 84 77 71 65 60 56 51 49 47 44 35 32 32 31 30 34 30 28 26 33 41 40 41 31 32 37 40 46 47 43 40 41 39 40
97 98 99 99 99 99 99 97 96 96 94 92 86 80 76 70 65 62 61 55 50 50 46 35 39 37 37 37 40 37 37 33 33 31 42 42 41 37 37 43 53 50 42 45 48 59 60
99 99 99 99 99 99 99 99 97 97 95 94 90 86 82 75 70 68 64 62 58 54 61 40 38 38 40 39 35 38 39 38 36 34 39 33 39 42 42 36 46 41 45 45 49 57 62
98 99 99 99 98 98 98 98 98 97 97 96 94 92 87 85 85 79 75 68 62 65 62 52 50 48 45 45 43 41 46 48 49 47 43 37 36 39 40 44 54 54 51 56 60 61 74
99 98 98 98 98 98 98 97 96 96 97 96 94 94 93 89 89 88 87 83 81 81 59 60 58 56 51 50 48 46 48 54 56 65 63 48 40 34 40 43 38 53 59 76 74 71 68
98 98 98 98 98 98 98 97 97 97 99 97 96 96 96 91 85 86 84 91 91 68 69 65 62 60 57 54 51 50 49 48 53 57 58 57 47 34 39 45 43 49 52 74 72 69 50
98 98 97 97 98 98 98 97 97 98 97 97 97 98 97 95 92 89 86 94 77 72 68 69 65 67 65 62 57 55 57 66 69 71 76 77 67 40 45 55 60 49 65 48 76 68 79
98 98 98 98 98 98 98 98 97 97 97 97 97 98 98 97 96 94 95 79 75 69 69 71 73 67 71 64 59 60 58 72 78 79 83 90 92 60 52 63 62 83 65 82 84 95 88
98 98 98 98 98 98 98 98 98 98 97 97 98 98 98 98 98 97 90 81 73 69 71 72 71 73 70 70 63 60 57 70 67 72 80 90 95 85 81 75 91 88 90 94 95 97 92
99 98 98 99 98 98 98 99 97 98 97 98 97 97 96 97 97 93 86 77 72 70 68 68 67 62 61 57 57 61 55 53 62 69 80 89 96 96 85 73 75 95 98 98 98 91 97
98 99 98 99 98 98 98 98 98 98 96 96 95 97 98 98 95 88 79 75 72 69 70 73 71 69 67 71 78 67 70 72 79 85 84 90 96 96 76 86 93 96 96 97 98 97 96
98 98 98 99 98 98 98 98 98 98 98 97 96 97 98 98 86 79 79 77 73 65 66 69 65 69 76 78 76 84 78 83 85 83 84 88 91 88 87 74 79 81 79 91 98 99 97
89 93 98 98 98 98 98 98 98 98 99 98 98 96 89 91 88 87 85 75 71 70 68 70 69 65 69 77 75 84 79 83 85 83 82 90 87 76 70 64 60 70 65 70 79 75 92
71 85 88 94 98 98 98 98 98 98 99 98 97 92 91 87 88 93 90 77 73 69 65 61 69 61 70 75 74 77 86 78 78 76 83 84 73 70 60 41 49 58 50 50 59 58 60
42 58 74 85 89 98 98 97 98 98 99 96 94 91 86 90 92 92 79 70 63 70 65 62 65 73 79 73 74 94 90 81 70 69 71 69 69 70 60 41 51 59 27 28 42 48 57
55 52 47 69 84 80 94 97 98 98 98 97 90 89 89 90 86 76 70 70 71 73 73 76 81 88 79 79 80 85 82 76 73 65 60 56 66 67 62 49 76 34 28 38 42 51 63
62 61 60 54 69 76 75 84 90 89 94 96 95 95 92 93 82 74 69 71 76 73 85 80 83 86 83 80 72 67 64 55 51 51 52 59 70 75 80 64 46 31 46 66 76 66 76
67 66 71 74 67 83 80 67 72 83 74 75 80 89 92 87 82 73 72 75 77 79 86 81 76 74 76 73 71 73 68 52 48 39 37 51 62 77 81 80 72 50 67 84 88 87 78
62 67 77 84 81 73 82 87 76 77 84 78 72 70 72 73 79 75 68 68 72 80 82 78 74 73 70 74 77 73 66 50 52 45 43 54 68 76 72 78 67 75 86 83 85 82 86
72 64 68 79 87 86 87 91 89 80 83 85 83 78 67 76 74 61 66 71 80 79 74 71 77 74 75 73 68 65 62 55 58 48 53 56 65 74 86 86 91 82 86 94 94 93 89
90 77 73 75 82 91 88 94 99 94 89 88 89 88 88 83 75 70 76 76 78 82 81 79 70 68 66 65 67 67 67 68 65 61 52 59 56 61 69 71 67 79 80 76 93 83 77

GFSGBSN_prec_cthk_183.txt.gz
RH
82 80 73 62 44 33 31 30 29 27 26 26 26 26 26 26 25 23 23 24 28 34 41 47 47 45 45 45 41 39 37 35 36 34 35 36 39 41 40 40 42 42 40 40 40 39 38
94 85 82 76 58 42 37 34 34 33 32 31 30 30 28 27 27 28 32 40 47 52 53 55 55 55 55 51 51 50 48 45 43 44 46 46 46 46 47 47 46 43 43 43 41 40 40
99 98 90 86 78 62 49 43 43 44 40 38 36 37 34 35 36 40 47 53 59 60 60 61 61 60 58 54 52 53 52 50 49 46 45 44 45 46 47 46 46 46 45 42 38 35 34
97 99 98 96 92 78 65 55 52 53 53 47 43 47 44 44 48 58 65 66 66 66 66 67 67 67 63 58 55 54 52 48 46 44 41 41 41 44 48 47 45 46 43 41 36 35 31
98 99 97 99 99 94 82 71 64 60 60 57 56 54 54 56 66 71 72 73 73 71 71 73 71 71 68 58 52 56 54 51 48 46 44 44 44 43 45 46 47 46 40 43 37 31 30
96 97 97 96 98 98 96 87 78 73 67 63 62 62 63 74 80 81 80 79 78 79 75 73 70 69 63 57 52 50 48 48 47 45 44 45 46 47 44 42 35 35 43 40 42 35 32
96 96 96 99 99 98 98 96 90 84 78 74 72 72 81 85 88 88 87 89 88 81 76 71 63 60 54 55 52 47 45 44 45 45 43 44 44 42 36 34 30 33 37 41 41 36 37
96 96 96 96 98 97 97 98 96 93 89 86 85 87 92 92 91 93 91 90 84 78 73 66 64 62 57 55 50 49 48 45 45 44 44 48 48 40 38 43 44 43 44 46 39 38 43
94 98 97 96 97 98 98 99 98 97 93 94 94 99 98 98 99 98 95 92 89 85 76 64 62 60 59 53 50 49 44 40 41 47 47 44 39 43 48 52 55 54 54 47 47 44 44
76 95 98 95 93 98 99 98 99 99 98 97 98 99 99 99 99 97 94 92 88 78 75 59 61 56 56 52 49 47 46 42 41 37 47 47 44 42 44 48 48 46 46 48 52 57 51
68 91 96 92 93 96 98 97 98 99 97 98 99 99 99 96 95 93 92 89 79 78 96 67 58 59 60 54 54 57 54 52 47 45 43 39 46 50 52 46 47 49 48 50 51 58 58
68 79 85 89 92 93 96 97 97 98 98 99 99 100 99 98 95 93 91 82 79 93 93 63 59 61 62 56 54 59 58 53 51 49 47 43 43 43 43 48 49 52 53 53 52 56 61
67 66 81 83 87 88 92 96 97 99 99 99 99 99 99 99 94 92 88 82 94 96 75 65 62 64 59 59 58 61 62 64 60 60 58 54 51 49 51 52 51 54 57 63 57 68 55
68 71 76 76 74 80 86 93 99 99 99 99 99 99 99 97 95 92 88 90 97 85 74 69 66 64 62 62 65 61 59 67 65 64 61 59 58 62 65 65 64 62 60 65 66 52 47
81 82 77 70 67 73 81 97 98 99 99 99 99 98 99 98 98 96 92 97 94 90 77 75 75 74 74 69 66 68 74 74 72 72 70 76 70 67 63 62 63 68 66 70 85 75 86
95 96 88 79 72 80 87 94 99 99 98 99 98 98 98 98 98 98 98 97 97 87 81 77 83 82 79 76 71 68 77 80 80 77 76 79 73 68 63 59 62 62 61 73 83 95 94
96 98 97 94 90 88 96 92 98 99 98 99 99 98 97 98 98 98 96 97 96 87 85 87 94 95 90 87 78 78 83 87 82 79 70 68 66 58 54 55 52 51 55 64 69 79 90
98 98 98 98 97 97 98 96 96 98 99 98 98 97 98 98 98 98 96 94 92 94 90 92 92 91 91 84 83 76 74 69 75 70 70 69 69 68 54 54 52 54 64 66 74 73 70
98 99 98 98 97 97 98 98 98 98 97 96 98 97 98 98 97 97 97 96 93 92 91 94 94 89 88 83 85 79 78 77 74 69 72 69 73 65 46 60 65 66 64 60 72 75 68
98 98 98 98 98 97 98 98 98 98 98 96 97 97 98 97 95 94 94 97 97 94 94 92 95 88 85 86 80 83 79 74 72 69 66 60 62 57 54 45 51 51 48 56 79 75 61
96 98 98 99 99 97 98 98 98 98 98 96 97 97 93 94 96 93 91 93 96 95 92 87 91 83 80 82 80 75 67 65 62 60 61 60 62 59 54 56 60 59 54 51 57 58 67
90 97 98 98 99 98 98 98 99 98 98 96 96 95 94 93 91 91 91 93 90 92 87 91 84 81 74 71 63 65 60 59 54 53 57 66 70 67 64 67 67 58 46 43 40 35 37
77 89 97 98 99 98 99 98 98 98 98 98 95 92 88 97 95 93 92 90 87 83 87 80 76 73 72 64 58 56 56 55 52 53 59 68 77 82 69 66 61 52 39 36 36 35 42
63 67 88 96 98 98 99 98 98 98 98 98 95 93 94 97 93 93 92 88 87 83 79 78 72 66 63 61 62 61 60 62 65 67 72 79 81 93 81 62 60 31 34 45 51 46 53
53 56 61 80 94 98 98 98 98 98 98 98 95 92 92 97 93 94 91 88 85 83 79 79 77 70 69 66 61 59 56 52 55 70 82 81 81 77 67 63 45 34 37 42 47 35 45
43 52 54 58 69 92 95 98 98 98 98 98 95 91 88 92 95 91 92 88 89 86 85 82 80 75 68 65 62 63 57 48 48 50 58 64 66 65 71 72 55 30 37 39 48 44 45
42 44 48 53 55 63 84 94 98 98 97 98 97 95 92 94 95 91 91 87 79 77 75 77 79 80 72 68 69 67 59 51 49 45 60 70 67 69 68 71 52 31 31 38 44 31 29
53 45 45 49 50 57 62 78 91 98 97 98 97 97 97 97 98 93 88 82 79 75 76 78 84 84 83 83 75 70 66 59 52 45 45 48 61 63 68 74 63 26 36 39 25 23 30
54 56 54 51 54 54 57 66 80 89 98 98 97 98 97 95 94 90 86 82 79 78 77 81 79 78 80 81 77 72 68 64 56 51 45 47 42 51 55 42 32 34 28 23 23 26 29

GFSGBSN_prec_cthk_186.txt.gz
RH
97 94 89 82 77 71 51 35 29 26 23 21 22 22 23 23 23 24 24 24 21 20 20 23 28 34 36 38 40 40 39 38 38 36 37 38 38 39 38 37 39 39 38 40 39 38 37
98 96 97 96 86 83 74 54 38 31 30 26 24 22 22 22 24 26 27 25 22 22 26 31 38 43 46 46 46 46 46 46 45 46 48 50 48 45 45 43 43 41 44 42 39 37 35
96 98 97 97 98 85 85 76 56 42 35 35 29 28 27 28 29 30 29 26 26 30 34 43 48 49 49 48 49 49 50 50 49 48 46 48 49 50 50 46 44 45 44 39 35 33 31
97 96 97 96 99 96 88 84 81 60 44 38 36 34 36 34 35 34 32 32 36 41 47 52 54 56 53 52 51 53 54 54 52 49 46 47 48 51 50 46 44 44 42 39 34 31 26
89 95 96 97 97 97 97 91 86 81 67 49 41 41 40 42 47 42 40 48 53 59 59 60 61 61 57 52 53 54 57 60 58 53 50 49 50 47 49 45 42 41 37 30 29 28 25
62 88 96 95 96 98 97 98 94 92 79 62 48 45 48 50 53 52 56 61 69 73 70 67 65 68 58 57 54 56 56 59 62 59 56 54 52 50 46 43 34 28 23 29 28 25 26
51 74 90 96 96 95 97 96 96 94 92 75 62 56 58 59 60 66 70 74 78 79 73 65 65 62 57 55 56 58 58 60 60 56 50 51 46 44 38 37 30 25 27 30 27 27 27
57 62 73 91 95 95 93 95 97 97 98 89 76 67 64 67 69 75 78 79 78 75 73 74 74 70 68 66 64 61 56 57 55 52 54 56 45 39 40 34 34 35 35 36 34 34 34
52 69 64 73 90 95 97 93 98 97 98 98 87 76 75 76 81 83 80 85 87 88 85 76 72 71 74 72 67 62 62 58 56 51 50 49 41 44 42 47 46 44 43 43 39 33 33
61 66 69 65 71 94 97 94 92 97 96 99 97 90 83 85 92 89 91 97 96 88 96 81 74 68 72 72 64 62 60 53 48 47 51 49 47 44 47 45 45 45 42 43 44 47 38
69 64 66 69 62 75 97 94 92 95 98 99 99 96 90 84 94 92 92 100 92 97 97 83 68 67 67 63 58 61 58 54 49 49 48 47 49 46 46 42 40 43 49 47 52 49 43
73 73 62 64 61 56 77 92 94 94 97 98 99 99 96 97 97 98 99 95 98 97 96 81 66 66 64 60 59 66 61 57 53 50 52 46 54 49 45 50 48 53 51 53 52 53 51
78 77 66 58 54 52 51 88 89 93 95 97 99 99 97 99 96 99 97 98 97 97 89 73 63 67 62 57 61 62 63 61 58 60 56 51 50 51 49 51 52 54 56 55 56 62 52
75 73 66 60 56 50 51 65 82 88 92 97 99 99 99 98 99 99 97 97 97 89 90 66 67 68 63 62 60 66 65 67 66 63 58 59 61 59 56 53 58 58 58 59 57 50 45
70 73 70 65 53 49 49 49 84 84 92 96 99 99 99 98 99 98 98 98 94 87 87 75 71 67 63 62 61 62 65 63 66 67 60 63 68 68 61 60 61 65 63 68 69 59 67
72 74 67 64 65 61 50 43 79 86 94 99 99 99 98 99 99 99 98 95 97 91 81 77 77 69 67 63 64 65 71 74 71 70 70 70 78 73 67 64 62 60 64 65 80 86 73
85 80 70 72 73 65 43 33 72 87 97 98 99 98 98 99 98 98 97 98 98 98 89 84 94 92 76 71 68 72 79 79 72 68 64 65 65 73 67 58 57 63 57 64 65 65 70
92 86 80 83 87 72 58 42 74 93 95 100 98 98 98 98 98 98 98 98 97 97 98 98 96 94 92 89 88 86 83 80 79 74 73 73 70 74 65 64 56 54 58 71 73 72 75
93 87 84 91 97 97 69 55 82 89 90 98 99 98 98 98 97 97 98 97 97 97 97 97 98 95 94 95 95 91 88 87 81 72 73 71 76 68 68 76 71 70 66 70 64 63 52
97 92 95 97 99 97 88 80 91 98 99 97 98 97 97 97 97 96 96 97 97 97 97 97 97 95 96 96 90 91 87 87 81 76 70 64 64 59 50 55 51 51 49 65 63 63 58
95 98 98 98 98 94 96 89 91 98 99 97 97 97 94 95 96 94 91 97 96 97 97 96 97 93 92 95 89 88 84 85 81 76 71 67 68 61 54 45 45 42 44 54 53 55 70
89 97 98 98 98 96 98 95 98 95 93 97 96 96 97 98 98 97 95 97 95 96 96 97 95 92 86 87 78 83 78 73 71 74 72 68 60 58 58 46 43 49 47 43 43 43 45
82 95 98 98 99 98 97 98 98 97 97 97 98 96 93 97 97 96 96 96 96 93 96 91 91 90 87 83 74 69 67 62 59 60 62 67 60 61 49 47 44 47 37 36 36 31 31
71 83 97 98 99 98 98 98 98 99 97 96 97 96 94 97 97 96 96 94 97 95 93 93 87 81 81 74 67 65 65 62 59 57 54 59 60 62 58 55 67 43 33 33 33 30 35
59 70 84 98 98 98 98 98 98 98 98 97 97 96 96 97 96 98 97 97 94 92 90 87 82 71 69 66 67 70 65 60 60 60 59 61 65 68 68 65 47 33 28 33 38 30 30
47 58 68 86 98 98 98 98 98 98 98 95 97 97 95 96 98 95 96 94 93 90 87 85 78 72 69 63 62 63 58 47 47 52 61 68 69 66 62 60 45 28 38 33 36 38 33
43 46 57 64 82 97 98 98 98 98 97 96 94 96 96 96 98 96 94 92 87 82 81 84 82 80 71 67 65 58 52 43 43 43 56 63 70 66 61 62 35 33 33 44 44 31 30
46 41 46 54 62 76 93 96 95 96 97 96 94 92 89 94 98 96 91 88 86 81 80 83 81 80 72 70 64 62 57 51 47 42 49 49 55 55 59 64 58 31 34 41 25 28 24
50 45 42 48 53 61 70 84 92 93 92 90 91 93 91 89 94 95 91 89 83 78 75 77 73 70 69 69 65 65 61 60 51 54 42 45 43 47 54 41 35 31 29 34 34 30 29

GFSGBSN_prec_cthk_192.txt.gz
RH
18 16 31 61 97 98 97 90 77 72 55 29 25 27 25 24 25 26 27 28 27 27 26 26 26 23 21 21 17 22 27 25 25 26 29 31 32 33 33 32 33 35 34 33 32 32 34
25 21 17 28 66 98 98 97 90 84 82 54 27 25 28 25 25 27 28 28 28 27 27 28 28 25 24 23 20 22 26 28 28 31 33 35 38 38 39 39 39 38 38 37 35 35 35
28 24 23 24 36 76 98 98 98 93 89 84 58 28 25 29 27 27 28 29 29 28 28 30 29 28 27 21 24 25 27 30 33 34 36 41 40 41 43 41 41 38 38 38 37 36 36
32 30 31 32 32 44 90 98 98 98 97 93 86 64 31 28 29 29 29 29 29 29 30 32 32 33 31 20 17 20 28 33 34 35 39 42 42 42 43 43 40 43 41 40 38 40 38
32 37 36 36 35 39 58 94 97 97 98 95 93 82 64 44 31 31 31 31 32 33 35 36 36 37 31 24 19 19 33 35 39 40 41 43 44 44 44 44 41 42 46 44 44 45 42
38 37 38 36 37 38 45 69 97 97 98 99 96 90 88 65 51 41 32 35 38 40 44 46 43 42 27 25 27 30 34 37 41 46 43 45 45 46 45 44 46 49 47 46 45 42 34
50 41 37 39 40 37 41 53 78 96 96 98 95 95 96 96 70 63 40 43 50 53 50 40 32 23 31 36 35 34 38 41 46 48 46 47 47 46 43 45 49 49 47 45 40 36 31
61 53 45 43 40 42 35 40 59 87 93 95 97 98 99 97 91 70 58 50 39 39 44 37 33 33 30 41 41 42 44 46 52 52 52 57 51 46 46 49 51 49 46 41 39 37 32
55 56 57 48 44 44 43 40 44 73 88 91 96 98 99 96 98 83 61 58 55 50 48 39 38 33 33 44 42 45 52 53 55 58 55 53 52 55 55 53 49 44 43 42 39 34 34
46 48 50 50 45 43 45 42 39 61 86 90 92 95 97 98 99 96 81 77 77 71 69 45 40 42 44 50 49 52 55 57 59 59 60 59 56 55 58 57 54 47 44 45 44 42 38
38 37 37 36 38 37 36 45 41 48 81 84 90 91 96 98 97 97 95 92 91 85 87 45 41 49 49 49 52 53 61 61 62 62 61 52 53 59 61 57 58 52 52 49 46 43 40
36 33 35 28 27 29 29 33 47 41 61 80 84 93 98 98 99 96 97 98 97 98 91 57 55 51 54 54 55 61 67 68 71 70 62 59 61 66 64 57 55 54 53 51 49 50 49
32 29 26 25 24 29 30 29 38 46 52 72 82 89 97 99 97 99 99 98 98 97 70 58 63 61 61 60 64 65 68 68 67 68 65 66 58 60 61 52 54 53 55 61 66 63 49
31 30 25 26 27 27 29 30 32 44 55 69 76 89 96 98 99 99 98 98 97 93 66 54 64 67 64 63 64 65 68 67 64 58 65 71 73 64 56 52 56 59 59 64 66 59 46
44 41 39 39 38 37 37 33 35 41 47 62 74 83 90 98 98 98 98 97 94 75 60 63 77 70 69 69 68 73 65 60 61 61 66 66 59 57 54 53 57 58 60 58 62 57 58
36 34 33 35 39 43 48 48 39 40 48 61 72 78 84 95 98 98 98 97 94 75 68 74 81 68 69 69 72 71 69 59 60 61 64 62 68 55 53 53 54 56 58 70 69 83 76
52 49 46 47 53 65 64 56 44 40 49 66 77 81 66 85 99 98 97 97 94 81 82 81 73 72 68 73 68 66 61 62 62 60 64 67 72 66 61 61 61 62 64 70 73 71 78
44 44 49 58 72 82 76 63 49 44 55 79 82 86 70 72 99 98 98 97 92 92 88 95 83 75 72 74 72 68 67 70 64 64 66 73 85 85 70 69 68 67 69 77 86 85 86
48 49 57 74 91 90 83 73 59 63 70 81 80 71 77 76 98 98 96 98 97 97 96 98 96 88 78 79 80 71 70 78 70 70 75 73 91 98 98 89 71 66 67 73 86 89 86
53 59 75 90 97 97 90 85 71 72 86 81 84 83 88 88 94 98 98 98 97 95 96 94 93 92 89 94 90 87 85 84 78 79 75 73 81 85 82 75 73 73 69 69 84 88 77
54 69 84 94 97 98 95 92 89 85 90 93 95 88 80 84 83 98 96 95 94 98 95 94 99 92 92 99 98 97 93 83 81 79 78 81 92 95 96 87 79 74 71 74 78 75 72
58 77 87 97 98 97 98 93 82 79 84 99 98 91 88 73 70 91 98 97 91 95 90 91 91 91 90 93 86 92 93 91 92 86 87 90 98 97 97 82 74 69 64 64 63 60 63
64 77 88 96 97 96 98 93 77 64 74 95 78 68 82 83 74 87 97 94 86 86 89 88 90 95 98 96 92 94 95 94 94 95 98 95 96 95 93 85 75 71 59 54 49 45 44
66 79 83 95 97 97 98 96 93 89 55 44 53 60 82 94 80 76 93 90 90 85 91 92 96 96 98 97 97 98 97 97 96 96 94 94 93 85 79 68 81 58 50 48 48 44 40
65 73 79 93 97 97 98 97 98 96 79 68 74 74 75 86 79 79 84 88 96 98 97 94 97 98 97 96 97 96 97 97 97 95 91 87 84 84 84 74 61 54 48 43 40 36 33
61 69 72 92 98 97 98 98 98 98 88 79 79 76 72 79 83 74 69 78 88 95 98 98 99 98 95 95 95 94 93 91 96 94 86 82 80 78 79 77 66 51 43 40 35 40 30
56 66 67 86 97 98 98 98 98 97 98 95 94 88 80 80 89 78 80 90 97 97 97 97 97 98 95 96 96 95 91 79 89 88 85 84 85 86 79 70 53 45 39 38 40 37 36
57 55 59 77 91 97 98 98 98 99 98 98 98 98 94 95 93 85 86 90 97 93 93 97 96 97 94 95 94 90 83 76 78 76 78 80 85 82 76 71 65 41 39 38 34 34 30
59 49 48 67 78 95 97 98 98 98 98 98 97 98 96 95 98 98 98 97 93 90 87 94 88 87 88 88 84 82 76 73 71 79 67 69 58 58 52 52 42 36 34 34 30 25 30

GFSGBSN_prec_cthk_195.txt.gz
RH
19 15 16 17 16 27 42 60 77 92 93 73 49 41 29 31 23 21 22 23 25 26 26 26 25 25 26 25 18 22 23 24 22 23 23 24 25 26 27 27 28 29 29 30 31 33 31
20 22 21 18 18 17 26 41 72 82 96 97 79 52 41 30 32 25 23 24 26 26 27 27 27 27 28 28 18 17 20 25 27 25 25 28 29 32 31 30 32 31 32 33 34 33 32
22 21 21 25 22 24 23 27 42 76 90 97 98 82 55 39 36 33 27 26 27 28 28 28 29 30 30 22 21 24 25 22 28 29 28 32 35 35 34 34 35 36 36 35 33 33 36
31 33 28 28 34 27 27 28 32 44 91 98 94 99 78 62 38 40 32 30 31 31 30 30 32 34 32 22 21 24 23 22 25 29 31 35 36 35 35 38 38 40 37 36 33 35 36
42 40 42 36 33 35 32 30 30 28 44 94 99 98 96 79 57 38 36 34 34 35 34 34 35 38 34 25 21 16 18 19 25 31 34 36 38 36 37 39 42 36 39 38 38 37 42
54 50 51 48 40 33 32 32 31 32 35 56 98 97 98 97 85 67 44 37 38 38 40 42 41 48 35 23 20 17 16 17 25 34 40 39 38 40 41 43 46 39 38 38 40 41 45
63 64 58 57 49 45 35 36 32 35 35 39 64 90 97 98 99 96 64 44 51 52 48 39 35 31 25 28 27 23 26 24 31 37 43 37 43 43 38 40 40 38 38 39 40 46 46
63 64 62 63 60 59 49 40 39 38 39 37 40 84 96 98 98 99 89 56 34 39 49 41 36 36 27 30 32 30 30 36 34 37 39 47 43 37 40 44 44 42 46 44 43 46 48
64 58 61 60 61 58 53 47 42 42 41 40 47 48 92 96 97 99 97 71 61 49 59 47 36 30 30 29 32 31 33 36 38 40 43 47 38 42 46 47 46 48 49 47 51 47 44
35 37 50 56 54 52 52 47 42 38 43 40 43 50 68 94 98 98 97 93 82 78 87 65 55 40 36 35 32 32 34 38 43 42 49 48 43 49 50 52 51 51 48 53 53 50 53
41 36 35 39 38 41 38 37 34 35 39 41 40 54 65 98 97 98 92 99 94 96 97 60 55 44 32 38 32 27 35 40 44 45 51 43 44 51 53 56 58 53 55 60 60 57 55
66 52 34 31 33 32 33 31 34 33 34 42 43 60 65 92 98 94 95 98 97 98 94 63 52 52 50 43 36 35 36 43 43 49 49 47 52 51 51 56 58 59 60 63 66 61 59
63 49 28 27 30 28 30 29 31 33 33 40 45 73 71 80 94 97 98 98 98 97 79 61 59 53 53 50 42 45 46 48 51 57 54 55 54 55 59 63 62 62 65 80 74 73 57
52 40 42 47 40 38 37 35 34 31 33 36 46 73 79 77 89 99 97 98 97 92 74 57 64 67 61 59 50 46 53 50 49 49 53 61 63 54 52 57 62 60 63 77 80 74 61
53 57 47 36 31 29 32 34 36 38 33 35 44 69 79 76 88 97 98 98 94 81 63 67 75 73 70 65 62 63 54 51 47 51 56 61 59 53 57 58 65 65 62 61 69 67 73
64 53 48 48 48 45 40 36 37 41 43 42 49 52 48 70 84 93 98 97 96 75 73 77 81 77 70 72 71 72 69 52 55 56 58 56 65 58 58 64 62 61 64 70 79 92 82
67 54 46 46 45 43 44 45 50 58 62 59 53 57 35 59 77 92 99 96 93 76 80 79 68 79 72 74 66 73 64 56 58 61 65 64 75 71 64 63 58 57 61 66 72 78 80
58 57 55 50 47 46 46 52 62 64 68 68 60 58 37 73 89 99 98 98 87 81 84 86 78 79 76 77 77 79 73 65 61 64 71 68 82 88 71 67 62 57 61 70 77 77 80
55 54 55 51 47 50 62 69 69 71 77 76 67 47 44 85 96 92 94 98 96 91 84 94 90 81 78 82 84 76 75 73 70 70 70 74 91 97 94 77 67 63 65 71 79 84 80
62 60 55 50 51 66 79 82 85 85 80 84 74 61 52 93 97 97 99 95 98 88 84 85 90 89 84 94 91 88 79 77 72 73 73 76 89 77 74 68 69 70 71 74 79 91 85
64 65 56 52 73 81 86 95 97 95 89 86 77 74 50 68 90 94 98 98 96 98 91 86 94 92 86 95 95 94 88 82 79 78 77 78 84 89 89 83 76 73 72 76 80 82 85
64 58 54 69 80 81 93 98 97 98 98 97 77 84 78 52 59 91 87 93 92 97 92 87 89 86 89 92 87 92 90 86 86 82 86 86 93 94 99 99 98 95 79 83 85 81 77
63 57 58 71 78 89 97 98 98 98 97 98 81 87 87 67 72 86 97 88 77 88 90 79 75 89 93 93 92 92 93 88 86 86 92 94 96 97 98 98 96 96 88 85 84 77 74
59 59 64 72 82 96 98 98 97 98 97 89 81 79 95 77 78 80 92 84 74 78 80 84 87 93 99 93 96 98 98 98 96 94 91 97 97 97 97 96 96 80 70 73 70 65 63
58 56 59 68 87 96 98 98 98 97 99 94 86 88 84 87 69 70 78 73 68 79 96 90 94 95 90 93 99 98 98 98 98 98 98 95 97 97 96 95 76 64 57 57 62 59 54
65 60 61 71 88 97 98 97 98 96 78 90 88 82 92 93 89 83 82 65 75 79 92 98 96 98 97 99 98 96 96 96 97 97 97 97 94 95 96 95 92 69 56 53 53 60 47
62 55 58 71 87 98 98 98 97 95 86 98 98 94 93 96 92 93 98 94 83 76 84 91 97 98 98 98 97 97 96 95 95 94 94 96 97 96 96 94 78 61 59 55 60 55 41
59 50 53 71 88 97 98 98 96 97 97 94 97 91 75 86 90 86 89 95 93 83 86 91 97 98 98 98 97 97 96 95 95 93 92 92 94 96 97 97 88 60 54 52 48 43 38
58 46 50 59 86 97 98 98 98 96 97 96 95 83 71 79 85 80 78 79 81 81 72 94 90 90 92 96 96 95 91 95 93 96 91 94 86 89 84 81 65 57 52 47 42 38 32